Acerta Brussels Ekiden
CAP Brussels, 18/10/2014, BEL
Ekiden - Classement
42.195km 
Catégorie
PosNrNomAgeEquipeTempsTkmMoy.RangNomLocalité
1.1680TEAM SAUCONY 2:12:043:08 19.171rm
2.1040OLYMPIC RUNNING TEAM THUIS2:14:423:12 18.802rm
3.975XRUNNINGCENTER DREAMTEAM RUNNINGCENTER L2:16:113:14 18.591rx
4.340RESC TEAM ONE RESC2:16:403:15 18.531cm
5.871GALA PRIMINVEST MANAGEMENT TEAM2:17:443:16 18.383rm
6.130AVLO JOMA MEN AVLO2:20:003:20 18.082cm
7.330XPUNK RUNNING 2:20:323:20 18.022rx
8.1613CABW H 1 CABW2:21:453:22 17.863cm
9.376TEAM VANDEWATTIJNE - MEN ACG2:22:193:23 17.794cm
10.849JOGGING PLUS KOPERINO2:23:083:24 17.694rm
11.189DAMP DRP AC DAMPICOURT2:23:423:25 17.625cm
12.119AS RIEME HERENTEAM AS RIEME2:25:513:28 17.366cm
13.228ESAK ESAK2:26:443:29 17.267cm
14.116ANTWERP ATHLETICS BIOSHOP 2:26:543:29 17.235rm
15.127XAVLO JOMA IN DE MIX AVLO2:27:143:30 17.201cx
16.1644XOEH MIXED 1 OEH2:28:183:31 17.072cx
17.136AVR 1 2:29:223:33 16.958cm
18.533NAT PLOEG NMBS SPOORWEGEN BELGISCHE SPOOR2:29:423:33 16.911bm
19.324XORT MIXED OEH2:30:053:34 16.873cx
20.219DUFF A TEAM KON. DUFFEL ATL2:30:283:34 16.839cm
21.410WE ARE A.C. LYRA - A A.C. LYRA2:31:123:35 16.7410cm
22.104AC PEGASUS KVAC2:32:123:37 16.6411cm
23.264JONG KAAG KONINKLIJKE ATL2:32:303:37 16.6012cm
24.421ZOTTEGEM ATLETIEK MANNEN ZA2:32:473:38 16.5713cm
25.374TEAM JOSE REVYN ASVO2:33:003:38 16.5514cm
26.191XDCLA BEESTEN VAN GUY MIXE DCLA2:34:463:41 16.364cx
27.134XAVMO-MIX AVMO2:35:023:41 16.335cx
28.269KKS 2015 2:35:203:41 16.3015cm
29.123ATLEMO1 ATLEMO2:35:433:42 16.2616cm
30.166BVAC HEREN 1 BVAC2:36:163:43 16.2017cm
31.181CS DYLE CS DYLE2:36:163:43 16.2018cm
32.1614CABW H2 CABW2:36:573:44 16.1319cm
33.357SMART RUNNING TEAM BEVERE VOLH2:37:013:44 16.1220cm
34.140XAVTOEKOMST AVTOEKOMST2:38:393:46 15.966cx
35.135AVR - JEUGD 2:38:423:46 15.9521cm
36.401VACBL HEREN 2:38:443:46 15.956rm
37.267KAAGENT MASTERS/SENIORS KAAGENT2:39:123:47 15.9022cm
38.1019XSPORTOASE FAST! SPORTOASE2:39:213:47 15.891bx
39.212XDEGROEPVANROEL DCLA2:39:323:47 15.877cx
40.861LBT ONE LBT - TESTING &2:40:263:49 15.782bm
41.1612FCABW DAMES1 2:41:213:50 15.691cf
42.139AVR-MASTERS 2:42:153:51 15.6023cm
43.987SD WORX SD WORX2:43:233:53 15.507rm
44.1035SWIFT ONE SWIFT2:44:343:54 15.383bm
45.321OLYMPIC KLEURENWIEZEN TEA OEH2:45:373:56 15.2924cm
46.203XDE RAPIDO'S 2:45:423:56 15.283rx
47.756UNICEF-GSK VACCINES 4 GLAXOSMITHKLINE2:45:553:56 15.264bm
48.640EU GIVE EUR HOPE - CACE M EU GIVE EUR HOP2:46:113:57 15.245bm
49.794XSUHPER TEAM HP2:46:333:57 15.202bx
50.137FAVR DAMES 1 KAVR2:47:093:58 15.152cf
DNF: abandon; DSQ: disqualifié; Vitesse en km/h
09/12/2022 - 06:41 - 1551 Entrées
ChronoRace - Electronic Timing SPRL
http://www.chronorace.be

Page 1 / 32  
Acerta Brussels Ekiden
CAP Brussels, 18/10/2014, BEL
Ekiden - Classement
42.195km 
Catégorie
PosNrNomAgeEquipeTempsTkmMoy.RangNomLocalité
51.1391XAB MARKE 1 DVV2:47:233:58 15.133bx
52.299XMACW NIEUWPOORT MACW2:48:164:00 15.058cx
53.416ZA-TEAM HEROES BAV2:48:194:00 15.0425cm
54.129AVLO JOMA JEUGD AVLO2:49:134:01 14.9626cm
55.338RESC MASTERS I RESC2:49:214:01 14.9527cm
56.393U6 2:49:214:01 14.958rm
57.121ASV OUDENAARDE HEREN ASV OUDENAARDE2:49:294:01 14.9428cm
58.333RCB1 RCB2:50:034:02 14.8929cm
59.377XTEAM VANDEWATTIJNE - MIX ACG2:50:074:02 14.889cx
60.1449P&G - START TO EKIDEN PROCTER & GAMBL2:50:264:03 14.866bm
61.190FDCLA - DAMES DCLA2:50:554:04 14.813cf
62.108XACLO DEMI-FOND ACLO2:51:024:04 14.8010cx
63.183XDAC JEUGD DAC2:51:224:04 14.7711cx
64.105AC PEGASUS 2 KVAC2:51:594:05 14.7230cm
65.388TOUS A BORD 1 2:52:124:05 14.709rm
66.327XPAJOTTERS 2 ATLETIEKCLUB PA2:52:184:05 14.6912cx
67.1356XDE SNELLE BEVERS COLRUYT GROUP2:52:554:06 14.644bx
68.887XBALTA 1 N.V. BALTA INDU2:53:394:07 14.585bx
69.1584XVDV CONSULTANTS BVBA - AN VDV2:53:524:08 14.566bx
70.366XSPORTIVAMENTE BRUXELLES ( SPORTIVAMENTE B2:54:114:08 14.5313cx
71.177XCLUB VANDEWEYER 2:54:134:08 14.534rx
72.128XAVLO JOMA IN DE MIX 2 AVLO2:54:584:09 14.4714cx
73.184DAC MANNEN 1 DAC2:55:544:11 14.3931cm
74.122ATLA 1 ATLA LANAKEN2:56:364:12 14.3432cm
75.220XDUFF MIX TEAM KON. DUFFEL ATL2:56:454:12 14.3215cx
76.208XDE VAC VEDETTEN VAC2:58:184:14 14.2016cx
77.222XDUFFEL ATLETIEKCLUB MIX A AC DUFFEL2:58:394:15 14.1717cx
78.186XDAC MIXED 1 DAC2:58:414:15 14.1718cx
79.1575ACERTA FOR FUN ACERTA2:58:464:15 14.167bm
80.182CS DYLE MASTERS + CSDYLE2:59:014:15 14.1433cm
81.159XBRABO 1 AC BRABO2:59:174:15 14.1219cx
82.198DE LIVING DILBEEK 2:59:284:16 14.1110rm
83.364SPORTIVA GELRODE 3:00:014:16 14.0611rm
84.326XPAJOTTERS 1 ATLETIEKCLUB PA3:00:204:17 14.0420cx
85.250HUBER FOREVER 1 3:00:254:17 14.0312rm
86.1641XDAC MIXED 3 DAC3:00:374:17 14.0221cx
87.1393AVKA SUPER TEAM 1 DVV3:01:024:18 13.998bm
88.302MASTERS AVMO +45 AVMO TIELT (MOL3:01:164:18 13.9734cm
89.1486TEAM SNEL ETERNIT NV3:01:174:18 13.979bm
90.483ASCO ENGINEERING ASCO INDUSTRIES3:01:344:19 13.9410bm
91.167BVAC HEREN 2 BVAC3:01:464:19 13.9335cm
92.289LEZARD TEAM 3:02:574:21 13.8413rm
93.888BALTA 2 N.V. BALTA INDU3:03:074:21 13.8311bm
94.157XBORN TO RUN OEH3:03:574:22 13.7622cx
95.855BRTC KVE-PROJECTS KVE-PROJECTS BV3:04:134:22 13.7412bm
96.248HOP MET DE BEENTJES 3:04:154:22 13.7414rm
97.1055DE ROODRUNNERS UNION NATIONALE3:04:424:23 13.7113bm
98.1539XEY TEAM 1 EY3:05:014:24 13.687bx
99.398VAC M2 VAC3:05:174:24 13.6636cm
100.910NUMECA-1 NUMECA INTERNAT3:05:174:24 13.6614bm
DNF: abandon; DSQ: disqualifié; Vitesse en km/h
09/12/2022 - 06:41 - 1551 Entrées
ChronoRace - Electronic Timing SPRL
http://www.chronorace.be

Page 2 / 32  
Acerta Brussels Ekiden
CAP Brussels, 18/10/2014, BEL
Ekiden - Classement
42.195km 
Catégorie
PosNrNomAgeEquipeTempsTkmMoy.RangNomLocalité
101.293LOOISE AV BOYS LOOISE AV3:05:404:25 13.6437cm
102.103X3MD 3:05:434:25 13.635rx
103.399VAC M3 VAC3:06:564:26 13.5438cm
104.969RSZ VRIENDENKRING/AMICALE RSZ3:06:564:26 13.5415bm
105.210DE VERGET'N 3:06:594:26 13.5415rm
106.919XJAN DE NUL RUNNERS TEAM 2 ONDERNEMINGEN J3:07:144:27 13.528bx
107.1606XBPOST - TEAM 6 ACTISOC - BPOST3:07:324:27 13.509bx
108.1676XVGD DENDERMONDE VGD GENT3:07:434:27 13.4910bx
109.411XWE ARE A.C. LYRA - B A.C. LYRA3:07:584:28 13.4723cx
110.187XDAC MIXED 2 DAC3:08:184:28 13.4524cx
111.1580BOEKHOUDKANTOOR VERMEIREN BOEKHOUDKANTOOR3:09:164:30 13.3816bm
112.155BNP PARIBAS CENTRIC 3:09:184:30 13.3816rm
113.1333XRUNN ING SECURITIES 3:09:504:30 13.3411bx
114.1025XSPORTOASE SET SPORTOASE3:09:504:30 13.3412bx
115.566BUY WAY EFFICIENCY BUY WAY PERSONA3:10:044:31 13.3217bm
116.551XDREAMTEAM 1 BOUWPUNT DECKER3:10:054:31 13.3213bx
117.1546SUPERMOBILE MOBISTAR3:10:184:31 13.3018bm
118.1392XAB MARKE 2 DVV3:10:194:31 13.3014bx
119.1696XARAC ARAC3:10:294:31 13.2915bx
120.1271BC LIMBURG 3:10:314:31 13.2919bm
121.356XSMAC NAMUR SMAC3:10:334:31 13.2925cx
122.188DAC MIXED 4 DAC3:11:004:32 13.2639cm
123.417ZA-TEAM STRIKES AGAIN ! 3:11:324:33 13.2217rm
124.433XACCENTURE TEAM 2 ACCENTURE NV3:11:344:33 13.2216bx
125.1157KEMPEN BNP PARIBAS FOR3:11:514:33 13.2020bm
126.284LES JOSÉS DE LA COURSE À 3:12:014:34 13.1918rm
127.375XTEAM VAN ACKER 3:12:044:34 13.186rx
128.1649VAN DER GUCHT 3 BOUW.PUNT VAN D3:12:074:34 13.1821bm
129.806IRCEL INTERGEWESTELIJ3:12:184:34 13.1719rm
130.1410KAAT DVV3:12:544:35 13.1222bm
131.918OMPARTNERS3 OM PARTNERS N.V3:13:244:35 13.0923bm
132.714XEU GIVE EUR HOPE : RTD SI EU GIVE EUR HOP3:13:274:36 13.0917bx
133.1695XDVV FANS DVV3:13:314:36 13.0818bx
134.106FAC PEGASUS VROUWEN KVAC3:13:394:36 13.074cf
135.564XBUY WAY CHALLENGERS BUY WAY PERSONA3:13:464:36 13.0719bx
136.436XACCENTURE TEAM 5 ACCENTURE NV3:13:474:36 13.0720bx
137.138FAVR DAMES JEUGD KAVR3:13:594:36 13.055cf
138.304MEELOPERS MEISE 1 3:14:034:36 13.0520rm
139.358SMELLS LIKE TEAM SPIRIT 3:14:234:37 13.0221rm
140.131FAVLO LEADING LADIES AVLO3:15:024:38 12.986cf
141.613XGTB TURBO'S DEUTSCHE BANK A3:15:094:38 12.9721bx
142.1454XUCB CLUB - GO FAST OR GO UCB PHARMA3:15:144:38 12.9722bx
143.334XRCB2 RCB3:15:214:38 12.9626cx
144.643FEU GIVE EUR HOPE - CACE W EU GIVE EUR HOP3:15:534:39 12.921bf
145.786HOPITAL ERASME 5 HÔPITAL ERASME3:15:564:39 12.9224bm
146.197FDE HERENIGING 3:15:594:39 12.921rf
147.294FLOOISE AV LADY'S LOOISE AV3:16:074:39 12.917cf
148.583XCOFELY AXIMA RUNNERS COFELY AXIMA3:16:244:40 12.8923bx
149.120FASV OUDENAARDE DAMES ASV OUDENAARDE3:16:294:40 12.898cf
150.315XNONKEL TISJ 3:16:364:40 12.887rx
DNF: abandon; DSQ: disqualifié; Vitesse en km/h
09/12/2022 - 06:41 - 1551 Entrées
ChronoRace - Electronic Timing SPRL
http://www.chronorace.be

Page 3 / 32  
Acerta Brussels Ekiden
CAP Brussels, 18/10/2014, BEL
Ekiden - Classement
42.195km 
Catégorie
PosNrNomAgeEquipeTempsTkmMoy.RangNomLocalité
151.12683:16:514:40 12.8625bm
152.976XRÜTGERS RABBIT RUNNERS RÜTGERS BELGIUM3:16:534:40 12.8624bx
153.699XEU GIVE EUR HOPE - TEAM P EU GIVE EUR HOP3:17:074:41 12.8425bx
154.1528XEY FSO TEAM 1 EY3:17:384:42 12.8126bx
155.1377GMT'S 2014 3:17:494:42 12.8022rm
156.185FDAC MASTERS DAMES DAC3:17:534:42 12.799cf
157.977RÜTGERS RAPID RUNNERS RÜTGERS BELGIUM3:18:034:42 12.7826bm
158.972XDE OVERLOPERS RUIMTE VLAANDER3:18:154:42 12.7727bx
159.735XFACIL FACIL EUROPE BV3:18:194:42 12.7728bx
160.1005SOCIÉTÉ GÉNÉRALE PRIVATE SOCIÉTÉ GÉNÉRAL3:18:324:43 12.7527bm
161.1418XDE SCEPTISCHE BUFFELS 3:18:574:43 12.738rx
162.790HORTIPLAN HORTIPLAN3:18:574:43 12.7328bm
163.1046XTOXIKON LCMS TOXIKON3:19:224:44 12.7029bx
164.1587XCM GEZONDHEIDSZORGEN 1 CM ZIEKENFONDS3:19:344:44 12.6930bx
165.171XCFL-TEAM 3:19:404:44 12.689rx
166.458XALLIANZ HAPPY TEAM 2 ALLIANZ3:19:454:45 12.6731bx
167.641XEU GIVE EUR HOPE - CACE M EU GIVE EUR HOP3:19:534:45 12.6732bx
168.246HÉRITIERS DE ZATOPEK 3:20:194:45 12.6423rm
169.828JOOS COMS MAIL JOOS COMS MAIL3:20:334:46 12.6229bm
170.273LEEUWERIK JEUGD 1 3:21:054:46 12.5924rm
171.192FDCLA DARING DISTANCE DEVI DCLA3:21:124:47 12.5810cf
172.582XAZAWA DU BRABANT CODIGIT SPRL3:21:494:47 12.5533bx
173.1386XRT ANITAV CMPG3:21:554:48 12.5434bx
174.950XPRAYON 1 S&E PRAYON SA3:21:584:48 12.5435bx
175.432XACCENTURE TEAM 1 ACCENTURE NV3:22:004:48 12.5336bx
176.241XH3O 3:22:034:48 12.5310rx
177.659EU GIVE EUR HOPE - GSC SE EU GIVE EUR HOP3:22:044:48 12.5330bm
178.1012SOPRA BANKING SOFTWARE 2 SOPRA BANKING S3:22:154:48 12.5231bm
179.317FOEH LADIES OEH3:22:314:48 12.5011cf
180.295LOUIS CLAES 3:22:354:49 12.5025rm
181.1645THURSDAY PACHANGUISTAS 3:22:364:49 12.5026rm
182.642XEU GIVE EUR HOPE - CACE M EU GIVE EUR HOP3:22:384:49 12.4937bx
183.200XDE NEGENDE MARATHON 3:22:394:49 12.4911rx
184.1588XCM GEZONDHEIDSZORGEN 2 CM ZIEKENFONDS3:22:434:49 12.4938bx
185.476AQUAFIN UNIT SCHELDE AQUAFIN3:22:494:49 12.4832bm
186.633XEU GIVE EUR HOPE - EUMS C EU GIVE EUR HOP3:23:004:49 12.4739bx
187.934PEPSICO PEPSICO BELUX3:23:144:49 12.4633bm
188.1590XCM MAATSCHAPPELIJK WERK E CM ZIEKENFONDS3:23:184:50 12.4540bx
189.1689TEAM DYLAN 3:23:304:50 12.4434bm
190.153BLACKMAN TEAM 3:23:354:50 12.4427rm
191.1241YES WE CAN ! BNP PARIBAS FOR3:23:444:50 12.4335bm
192.742FNO6 FN HERSTAL3:23:444:50 12.4336bm
193.462ALLNEX 2 ALLNEX BELGIUM3:23:464:50 12.4337bm
194.1586XCM BRUGGE CM ZIEKENFONDS3:23:464:50 12.4241bx
195.124XATLEMO2 ATLEMO3:23:504:50 12.4227cx
196.607DELHAIZE 4 DELHAIZE3:23:534:50 12.4238bm
197.1041THUISZORGWINKEL WVL 1 THUISZORGWINKEL3:23:544:50 12.4239bm
198.1140FM RUNNING STARS BNP PARIBAS FOR3:24:004:51 12.4140bm
199.1642XMCR 3:24:064:51 12.4112rx
200.403XVALLIER ROAD RUNNERS 3:24:184:51 12.3913rx
DNF: abandon; DSQ: disqualifié; Vitesse en km/h
09/12/2022 - 06:41 - 1551 Entrées
ChronoRace - Electronic Timing SPRL
http://www.chronorace.be

Page 4 / 32  
Acerta Brussels Ekiden
CAP Brussels, 18/10/2014, BEL
Ekiden - Classement
42.195km 
Catégorie
PosNrNomAgeEquipeTempsTkmMoy.RangNomLocalité
201.160XBRABO 2 BRABO3:24:194:51 12.3928cx
202.1006XSOLVAY SOLVAY SA3:24:244:51 12.3942bx
203.1343THE L&I SAMOURAÏ TEAM 3:24:404:52 12.3741bm
204.164FBVAC DAMES 1 BVAC3:24:454:52 12.3712cf
205.110XALVA 1 ALVA3:24:464:52 12.3629cx
206.1691HET FACILITAIR BEDRIJF - HET FACILITAIR 3:24:524:52 12.3642bm
207.796ICSENSE 2 ICSENSE NV3:24:564:52 12.3543bm
208.683XEU GIVE EUR HOPE - REGIO EU GIVE EUR HOP3:25:104:52 12.3443bx
209.1495ELECTRABEL 3 ELECTRABEL GDF 3:25:164:52 12.3344bm
210.1205XSPACE RUNNERS BNP PARIBAS FOR3:25:214:52 12.3344bx
211.1640BOKKELOPERS 3:25:234:53 12.3328rm
212.1685TEAM JACQUES 3:25:294:53 12.3245bm
213.795ICSENSE 1 ICSENSE NV3:25:324:53 12.3246bm
214.1497XELECTRABEL 5 ELECTRABEL GDF 3:25:444:53 12.3145bx
215.1066VAN MARCKE 2 VAN MARCKE NV3:25:474:53 12.3047bm
216.625XELIA 4 ELIA SYSTEM OPE3:25:534:53 12.3046bx
217.880MÖBIUS RUNNERS MÖBIUS3:25:544:53 12.3048bm
218.1385XRT ANDRÉ CMPG3:26:024:53 12.2947bx
219.732FORTINET - DIMENSION DATA EXCLUSIVE NETWO3:26:064:54 12.2849bm
220.314XNINETIE2 3:26:084:54 12.2814rx
221.1669XVRT-FORZASPORZA2 VRT3:26:094:54 12.2848bx
222.133FAVMO LADYS AVMO3:26:154:54 12.2813cf
223.268XKERSTMISTEAM 3:26:184:54 12.2715rx
224.373XTEAM GIS 3:26:214:54 12.2716rx
225.754XUNICEF-GSK VACCINES 2 GLAXOSMITHKLINE3:26:274:54 12.2649bx
226.1499XELECTRABEL 7 ELECTRABEL GDF 3:26:294:54 12.2650bx
227.1544XMOBILET'S GO MOBISTAR3:26:344:54 12.2651bx
228.981RUNDOM TEAM SAMUEL HAMACHE 3:26:354:54 12.2650bm
229.1389XCRELAN KREDIETEN CRELAN3:26:424:54 12.2552bx
230.1257XSIEMENS INDUSTRY SOFTWARE SIEMENS3:26:434:54 12.2553bx
231.339RESC MASTERS II RESC3:26:504:55 12.2440cm
232.400VAC MV VAC3:26:514:55 12.2441cm
233.1451P&G - R&D HOMECARE PROCTER&GAMBLE 3:26:534:55 12.2451bm
234.1073V-RUNNERS VINÇOTTE INTERN3:26:594:55 12.2352bm
235.935PHPRO PHPRO NV3:27:014:55 12.2353bm
236.704XEU GIVE EUR HOPE - UNCOMP EU GIVE EUR HOP3:27:024:55 12.2354bx
237.402FVACBL LADIES 3:27:074:55 12.222rf
238.623XELIA 2 ELIA SYSTEM OPE3:27:174:55 12.2155bx
239.1570XACERTA - THE FAST & ACERT ACERTA3:27:294:56 12.2056bx
240.1026XSPORTOASE SPL SPORTOASE3:27:314:56 12.2057bx
241.290XLINK 3:27:334:56 12.2017rx
242.150XBERNIS BROTE 3:27:464:56 12.1918rx
243.847XKEYRUS ALL-STARS KEYRUS3:27:494:56 12.1858bx
244.1663TECCOMBEFAST PARTENA BUSINES3:27:524:56 12.1854bm
245.1596BPOST - BPACK ACTISOC - BPOST3:28:044:56 12.1755bm
246.1365XLOONDIENST COLRUYT GROUP3:28:064:56 12.1759bx
247.238XGOEBEZIG 3:28:144:57 12.1619rx
248.1653EASYNET TURBO TEAM EASYNET BELGIUM3:28:154:57 12.1656bm
249.445AE AE3:28:234:57 12.1557bm
250.109ADB ROYAL EXCELSIOR3:28:264:57 12.1542cm
DNF: abandon; DSQ: disqualifié; Vitesse en km/h
09/12/2022 - 06:41 - 1551 Entrées
ChronoRace - Electronic Timing SPRL
http://www.chronorace.be

Page 5 / 32  
Acerta Brussels Ekiden
CAP Brussels, 18/10/2014, BEL
Ekiden - Classement
42.195km 
Catégorie
PosNrNomAgeEquipeTempsTkmMoy.RangNomLocalité
251.1671XVRT-STUBRU VRT3:28:284:57 12.1560bx
252.172XCHANNEL 18 3:28:294:57 12.1420rx
253.565XBUY WAY DYNAMICS BUY WAY PERSONA3:28:304:57 12.1461bx
254.285XLES MARCHANDS DE SABLE DU 3:28:344:57 12.1421rx
255.902XNGAGE CONSULTING B NGAGE CONSULTIN3:28:344:57 12.1462bx
256.441XADESSO FITNESS GO ADESSO FINTESS 3:28:354:57 12.1463bx
257.626XELIA 5 ELIA SYSTEM OPE3:28:354:57 12.1464bx
258.256XIN EEN KLEIN STATIONNETJE 3:28:374:57 12.1422rx
259.624XELIA 3 ELIA SYSTEM OPE3:28:404:57 12.1365bx
260.965XRUNAULT RUNNERS RENAULT BELGIË 3:28:544:58 12.1266bx
261.1492ELECTRABEL 1 ELECTRABEL GDF 3:28:584:58 12.1258bm
262.1163LES GI RUNNERS FOR A BETT BNP PARIBAS FOR3:29:024:58 12.1159bm
263.168XCARO & DIETER 3:29:034:58 12.1123rx
264.881XMÖBIUS YOUNG GRADUATES MÖBIUS3:29:294:58 12.0967bx
265.1185PRIVATE BANKING RUNNING T BNP PARIBAS FOR3:29:324:58 12.0860bm
266.231FLUXYS H 3:29:354:59 12.0829rm
267.816XJAN DE NUL RUNNERS JAN DE NUL / EN3:29:414:59 12.0768bx
268.216XDINGO JOG'S 3:29:414:59 12.0724rx
269.329PLAN B 3:29:424:59 12.0730rm
270.882XCRABS MONANTO EUROPE 3:29:494:59 12.0769bx
271.1439XP&G - IDS MANUF SPEED PROCTER & GAMBL3:29:584:59 12.0670bx
272.1013SOPRA BANKING III SOPRA BANKING S3:30:074:59 12.0561bm
273.706XEU GIVE EUR HOPE : COR RE EU GIVE EUR HOP3:30:114:59 12.0571bx
274.774XHENKEL - DROGENBOS HENKEL BELGIUM3:30:134:59 12.0472bx
275.237XGAVERTRIMMERS 3:30:164:59 12.0425rx
276.522NBB PRLS BANQUE NATIONAL3:30:175:00 12.0462bm
277.382THE MOONRUNNERS 3:30:245:00 12.0331rm
278.1398CORONA DIRECT DVV3:30:345:00 12.0263bm
279.1401XDVV ASSUR PLUS 1 DVV3:30:415:00 12.0273bx
280.550BOUW.PUNT VAN PELT BOUW.PUNT VAN P3:30:455:00 12.0164bm
281.690XEU GIVE EUR HOPE - SAMATO EU GIVE EUR HOP3:30:465:00 12.0174bx
282.414XXAVIER VANMEERBEECK 3:30:565:00 12.0026rx
283.998SELLIGENT SELLIGENT3:31:025:01 12.0065bm
284.606XDELHAIZE 3 DELHAIZE3:31:045:01 12.0075bx
285.825XHOMIEZ RUN JOCHEN VANKERCK3:31:075:01 11.9976bx
286.418FZA-TEAM: "THE BEST IS YET 3:31:125:01 11.993rf
287.1666STIBBE TEAM 3 STIBBE3:31:125:01 11.9966bm
288.780SUPER HEROES ON THE RUN HONEYWELL NV3:31:135:01 11.9967bm
289.125XATLEMO3 ATLEMO3:31:155:01 11.9830cx
290.644XEU GIVE EUR HOPE - CIRQUE EU GIVE EUR HOP3:31:195:01 11.9877bx
291.365XSPORTIVAMENTE BRUXELLES – 3:31:245:01 11.9827rx
292.788XHOPITAL ERASME 7 HÔPITAL ERASME3:31:325:01 11.9778bx
293.1623XBEOBANK TEAM 3 BEOBANK3:31:375:01 11.9679bx
294.627ELSTER ELSTER ENERGYIC3:31:395:01 11.9668bm
295.745XGCONTHEMOVE GC EUROPE N.V.3:31:415:01 11.9680bx
296.1522XSODIWE SODIWE VZW3:31:415:01 11.9681bx
297.148EU GIVE EUR HOPE – CNECT 3:31:425:02 11.9669bm
298.422XZUSKE TEAM 3:31:515:02 11.9528rx
299.195XDE DOORZETTERS 3:31:525:02 11.9529rx
300.117XAPERO 3:31:525:02 11.9530rx
DNF: abandon; DSQ: disqualifié; Vitesse en km/h
09/12/2022 - 06:41 - 1551 Entrées
ChronoRace - Electronic Timing SPRL
http://www.chronorace.be

Page 6 / 32  
Acerta Brussels Ekiden
CAP Brussels, 18/10/2014, BEL
Ekiden - Classement
42.195km 
Catégorie
PosNrNomAgeEquipeTempsTkmMoy.RangNomLocalité
301.439XACV-CSC METEA ACV-CSC METEA3:31:585:02 11.9482bx
302.331XRACEHORSES 3:32:055:02 11.9431rx
303.344ROYAL ENTENTE WOLUWÉ 3:32:055:02 11.9432rm
304.964RENAULT DROPPIES RENAULT BELGIË 3:32:065:02 11.9470bm
305.947PRAYON 8 PRAYON3:32:085:02 11.9471bm
306.1686XTEAM KEVIN 3:32:095:02 11.9383bx
307.1597XBPOST - BFAST ACTISOC - BPOST3:32:135:02 11.9384bx
308.1359GARAGE1 COLRUYT GROUP3:32:255:03 11.9272bm
309.1493ELECTRABEL 10 ELECTRABEL GDF 3:32:265:03 11.9273bm
310.1229THE SNAILS BNP PARIBAS FOR3:32:515:03 11.8974bm
311.1458XUCB CLUB - LES OUTSIDERS UCB PHARMA3:32:545:03 11.8985bx
312.1323XPLUX TEAM 3:32:565:03 11.8986bx
313.1278CORPORATE LENDING TEAM 3:32:575:03 11.8975bm
314.379XTHE 'BILATERALS' 3:32:585:03 11.8932rx
315.464XTEAM 1 ALTACHEM NV3:33:035:03 11.8887bx
316.727XDEN BRANDEWIJN RUNNERKES EVENT EXPO BELG3:33:035:03 11.8888bx
317.149XEU GIVE EUR HOPE BEFFORT 3:33:035:03 11.8889bx
318.385XTHE STRAGEDY TEAM 3:33:065:04 11.8833rx
319.223XEDRI! 3:33:105:04 11.8834rx
320.1339SOPHIS SOLUTION RUNNING T 3:33:105:04 11.8876bm
321.1555XACERTA - DE LIVINUSLOPERS ACERTA3:33:125:04 11.8890bx
322.305XMEELOPERS MEISE 2 3:33:165:04 11.8735rx
323.298MACHO TEAM 3:33:195:04 11.8733rm
324.194XDE BREEË BEREN 3:33:225:04 11.8736rx
325.586DEVOS & LEMMENS CONTINENTAL FOO3:33:245:04 11.8677bm
326.1517CATERPILLAR TEAM 5 CATERPILLAR3:33:245:04 11.8678bm
327.615PASSION TO RUN DEUTSCHE BANK A3:33:255:04 11.8679bm
328.1111BOTANIC DISASTER BNP PARIBAS FOR3:33:295:04 11.8680bm
329.354XSIVA DOG TEAM 3:33:305:04 11.8637rx
330.850XKPMG PES KPMG3:33:355:04 11.8591bx
331.622XELIA 1 ELIA SYSTEM OPE3:33:355:04 11.8592bx
332.407XVRIENSKES VOOR ALTIJD 3:33:365:04 11.8538rx
333.1591XCM ST.-MICHIELSBOND CM ZIEKENFONDS3:33:375:04 11.8593bx
334.589CPS RUN TO START CPS VERZEKERING3:33:395:04 11.8534rm
335.933XSUPER GIRLS PENNE HENK3:33:435:04 11.8594bx
336.118ARK TEAM 3:33:455:04 11.8535rm
337.923XORES ORES3:34:005:05 11.8395bx
338.916XOMPARTNERS1 OM PARTNERS N.V3:34:075:05 11.8296bx
339.1316ORANGE CAN BE HARD 3:34:075:05 11.8281bm
340.1405DVV ROBBERECHTS HERENTEAM DVV3:34:075:05 11.8282bm
341.415XYESS WE CAN VAC3:34:125:05 11.8231cx
342.287XLES PINPINS 3:34:175:05 11.8139rx
343.501POWER AUTOMATION N.V.3:34:185:05 11.8183bm
344.948XPRAYON10 PRAYON3:34:235:05 11.8197bx
345.600XDE WATERLOPERS DE WATERGROEP3:34:325:06 11.8098bx
346.833XKBC FINANCE BELGIË2 KBC3:34:335:06 11.8099bx
347.146XB-DSK(NOIR) 3:34:365:06 11.8040rx
348.886XHOBOKEN REPREZENT! MUNDIAL BOOKING3:34:385:06 11.8041rx
349.449MOVE4CANCER AG INSURANCE3:34:395:06 11.7984bm
350.1668XVRT-FORZASPORZA1 VRT3:34:405:06 11.79100bx
DNF: abandon; DSQ: disqualifié; Vitesse en km/h
09/12/2022 - 06:41 - 1551 Entrées
ChronoRace - Electronic Timing SPRL
http://www.chronorace.be

Page 7 / 32  
Acerta Brussels Ekiden
CAP Brussels, 18/10/2014, BEL
Ekiden - Classement
42.195km 
Catégorie
PosNrNomAgeEquipeTempsTkmMoy.RangNomLocalité
351.1693XDE KLASBAKKEN V.Z.W. H. HARTI3:34:585:06 11.78101bx
352.1589XCM LIMBURG CM ZIEKENFONDS3:35:035:06 11.77102bx
353.528BELFIUS VALIDATION TEAM BELFIUS3:35:065:06 11.7785bm
354.946XPRAYON 7 PRAYON3:35:075:06 11.77103bx
355.448XKING TEAM AG INSURANCE3:35:115:06 11.77104bx
356.1564XACERTA - RUN ACERTA RUN ACERTA3:35:135:07 11.76105bx
357.519XBALOISE INSURANCE LEVEN/V BALOISE INSURAN3:35:175:07 11.76106bx
358.112XALVA 3 ALVA3:35:195:07 11.7632cx
359.378FTEAM VANDEWATTIJNE - WOME ACG3:35:215:07 11.7614cf
360.1687XTEAM OLIVIA 3:35:225:07 11.76107bx
361.679XEU GIVE EUR HOPE - PULPET EU GIVE EUR HOP3:35:235:07 11.75108bx
362.601XDE WATERWINNERS DE WATERGROEP3:35:255:07 11.75109bx
363.1011SOPRA BANKING TEAM SOPRA BANKING3:35:285:07 11.7586bm
364.447XJU & GI AG INSURANCE3:35:295:07 11.75110bx
365.999SIGGIS SIGGIS3:35:385:07 11.7487bm
366.100PAR DÉFAUT 3:35:395:07 11.7436rm
367.1259XSIEMENS LMV ROADRUNNERS SIEMENS3:35:405:07 11.74111bx
368.540BCG BRU BOSTON CONSULTI3:35:415:07 11.7488bm
369.736XFAMOUS FAMOUS NV3:35:495:07 11.73112bx
370.1329XROARING LIONS 3:35:555:08 11.73113bx
371.1525XEY AUDIT BXL TEAM 2 EY3:36:035:08 11.72114bx
372.895XCHOCOMANIA NATRA MALLE3:36:055:08 11.72115bx
373.397FVAC LADIES VAC3:36:075:08 11.7215cf
374.1033SWIFT FREESTYLE SWIFT3:36:175:08 11.7189bm
375.904NLMK CLABECQ 1 NLMK CLABECQ3:36:175:08 11.7190bm
376.1572XACERTA - THE WORKAROUNDS ACERTA3:36:225:08 11.70116bx
377.701EU GIVE EUR HOPE - THE A EU GIVE EUR HOP3:36:235:08 11.7091bm
378.1274XBT LADIES 3:36:405:09 11.69117bx
379.672EU GIVE EUR HOPE - MALTA EU GIVE EUR HOP3:36:415:09 11.6892bm
380.1549ACCOUNTANTSKANTOOR VERMEI ACCOUNTANTSKANT3:36:495:09 11.6893bm
381.917XOMPARTNERS2 OM PARTNERS N.V3:36:535:09 11.67118bx
382.591XCRELAN INSPECTIE CRELAN3:36:545:09 11.67119bx
383.394XUNFORGETTABLY 3:36:555:09 11.6742rx
384.547XBOUW.PUNT VAN DER GUCHT 4 BOUW.PUNT VAN D3:36:565:09 11.67120bx
385.838XJACKASS KBC BANK3:36:565:09 11.67121bx
386.1078XPAPER RACERS VPK PAPER3:37:045:09 11.66122bx
387.193DE BOKES ME CHOCO 3:37:055:09 11.6637rm
388.760XUNICEF-GSK VACCINES 9 GLAXOSMITHKLINE3:37:065:09 11.66123bx
389.1037TAILORMATE TAILORMATE BVBA3:37:105:09 11.6694bm
390.1358XDREAMLAND COLRUYT GROUP3:37:165:09 11.65124bx
391.312XNICO'S ANGELS 3:37:285:10 11.6443rx
392.1412XROSETTES'S LOOP-SEXTET DVV3:37:405:10 11.63125bx
393.826XJ&J GTSC 1 JOHNSON & JOHNS3:37:425:10 11.63126bx
394.1212TEAM CASC 5 BNP PARIBAS FOR3:37:445:10 11.6395bm
395.889FBALTA 3 N.V. BALTA INDU3:37:475:10 11.632bf
396.1456XUCB CLUB - GRAND TURISMO UCB PHARMA3:37:485:10 11.62127bx
397.967XRISO VLAAMS-BRABANT RISO VLAAMS-BRA3:37:525:10 11.62128bx
398.723XEUROGLAS - DE LANDTSHEER EUROGLAS DE LAN3:37:555:10 11.62129bx
399.952XPRAYON 3 FINANCIER PRAYON SA3:37:565:10 11.62130bx
400.1494ELECTRABEL 2 ELECTRABEL GDF 3:37:595:10 11.6196bm
DNF: abandon; DSQ: disqualifié; Vitesse en km/h
09/12/2022 - 06:41 - 1551 Entrées
ChronoRace - Electronic Timing SPRL
http://www.chronorace.be

Page 8 / 32  
Acerta Brussels Ekiden
CAP Brussels, 18/10/2014, BEL
Ekiden - Classement
42.195km 
Catégorie
PosNrNomAgeEquipeTempsTkmMoy.RangNomLocalité
401.322XON THE ROAD AGAIN!! 3:38:025:11 11.6144rx
402.612DEUTSCHE BANK BRUSSELS DEUTSCHE BANK A3:38:105:11 11.6097bm
403.955PRAYON 6 PRAYON TECHNO 2 PRAYON SA3:38:105:11 11.6098bm
404.689XEU GIVE EUR HOPE - S.V.P. EU GIVE EUR HOP3:38:115:11 11.60131bx
405.718XEU GIVE EUR HOPE REGIO FL EU GIVE EUR HOP3:38:145:11 11.60132bx
406.165XBVAC GEMENGD BVAC3:38:215:11 11.6033cx
407.1583XSBB WAASLAND SBB3:38:215:11 11.59133bx
408.1455XUCB CLUB - GOLDEN TURTLES UCB PHARMA3:38:255:11 11.59134bx
409.510XTEAW+R AW EUROPE3:38:255:11 11.59135bx
410.938XINFORMAT PLANTYN NV3:38:255:11 11.59136bx
411.698XEU GIVE EUR HOPE - TEAM D EU GIVE EUR HOP3:38:285:11 11.59137bx
412.728XFORTINET - DIMENSION DATA EXCLUSIVE NETWO3:38:295:11 11.59138bx
413.485XASCO IQA ASCO INDUSTRIES3:38:325:11 11.59139bx
414.466ALVEY SERVICES ALVEY3:38:355:11 11.5899bm
415.1399DE ROYAL DVV3:38:395:11 11.58100bm
416.639XEU GIVE EUR HOPE - CAB PR EU GIVE EUR HOP3:38:435:12 11.58140bx
417.1248XSIEMENS CAPTAINS CREW SIEMENS3:38:445:12 11.58141bx
418.348RUNNING IN THE FAMILY 3:38:445:12 11.5738rm
419.206XDE SPECIALISTEN BERGOP 3:38:485:12 11.5745rx
420.1428XDELOITTE TEAM 4 DELOITTE3:38:485:12 11.57142bx
421.242XHALLÉBOUYA 3:38:495:12 11.5746rx
422.1516XCATERPILLAR TEAM 4 CATERPILLAR3:38:525:12 11.57143bx
423.468MARADEUS AMADEUS BENLEUX3:38:535:12 11.57101bm
424.234XFRITUUR MOVIE RUNNERS 3:38:535:12 11.5747rx
425.1601XBPOST - DIKSMUDE 1 ACTISOC - BPOST3:38:565:12 11.56144bx
426.1527XEY BRUSSELS' AUDIT TEAM EY3:38:595:12 11.56145bx
427.516XAXA PIERRE AXA BELGIUM3:39:025:12 11.56146bx
428.515XAXA MARC AXA BELGIUM3:39:035:12 11.56147bx
429.1108BNPPF PC RUNNERS BNP PARIBAS FOR3:39:035:12 11.56102bm
430.884XMULTIPLICOM - TEAM 1 MULTIPLICOM3:39:055:12 11.56148bx
431.681XEU GIVE EUR HOPE - RAW MA EU GIVE EUR HOP3:39:085:12 11.55149bx
432.1125XDRY POWDER BNP PARIBAS FOR3:39:095:12 11.55150bx
433.1634DE COCO'S GAAN ERAAN! 3:39:105:12 11.5539rm
434.430ABSI ABSI3:39:125:12 11.55103bm
435.525BASF ANTWERPEN BASF ANTWERPEN 3:39:155:12 11.55104bm
436.1400XDORIEN DVV3:39:155:12 11.55151bx
437.161XBRABO 3 BRABO 33:39:165:12 11.5534cx
438.789XHOPITAL ERASME 8 HÔPITAL ERASME3:39:225:12 11.54152bx
439.486XASCO OPS ASCO INDUSTRIES3:39:225:12 11.54153bx
440.387XTOOCEE-EMWAY ONE 3:39:285:13 11.5448rx
441.1059XSOLIDA ANTWERPEN UNION NATIONALE3:39:335:13 11.53154bx
442.446AFFILIPS AFFILIPS NV3:39:395:13 11.53105bm
443.1533XEY LAST BUT NOT LEAST EY3:39:415:13 11.52155bx
444.1047XTOXIKON SD E&L TOXIKON3:39:465:13 11.52156bx
445.371XTEAM GEEURICKX 1 3:39:505:13 11.5249rx
446.342RIWAMEN RIXENSART WAVRE3:39:525:13 11.5143cm
447.1420XKNEHT KUEHNE+NAGEL3:39:535:13 11.51157bx
448.1481XMANASCO 2 ETERNIT NV3:39:535:13 11.51158bx
449.584XUITSLOVERS COLRUYT & TOM3:39:545:13 11.51159bx
450.1382XIRUN4BEERS AB INBEV3:39:555:13 11.51160bx
DNF: abandon; DSQ: disqualifié; Vitesse en km/h
09/12/2022 - 06:41 - 1551 Entrées
ChronoRace - Electronic Timing SPRL
http://www.chronorace.be

Page 9 / 32  
Acerta Brussels Ekiden
CAP Brussels, 18/10/2014, BEL
Ekiden - Classement
42.195km 
Catégorie
PosNrNomAgeEquipeTempsTkmMoy.RangNomLocalité
451.1595XOKRA CM ZIEKENFONDS3:40:025:13 11.51161bx
452.279XLES DRAGONS MONTOIS 3:40:035:13 11.5150rx
453.1607XBPOST - THIMISTER 2 ACTISOC - BPOST3:40:115:14 11.50162bx
454.688XEU GIVE EUR HOPE - RUNNIN EU GIVE EUR HOP3:40:385:14 11.47163bx
455.202XDE PLANTREKKERS 3:40:425:14 11.4751rx
456.631XEP-SCHROEYEN EP-SCHROEYEN3:40:455:14 11.47164bx
457.179XCOVENT GARDEN TROLLS 3:40:475:14 11.47165bx
458.936XPIZZARUNNERS PIZZA BELGIUM3:40:515:15 11.46166bx
459.337FRESC MASTER LADIES I RESC3:40:535:15 11.4616cf
460.771HANSEA 3 HANSEA3:40:585:15 11.46106bm
461.1077XVMB - FINANCE FOR DYNAMIC VMB FINANCIAL S3:41:005:15 11.46167bx
462.1500XELECTRABEL 8 ELECTRABEL GDF 3:41:025:15 11.45168bx
463.1437XP&G - GO GO POWER RANGERS PROCTER & GAMBL3:41:135:15 11.44169bx
464.1427XDELOITTE TEAM 3 DELOITTE3:41:175:15 11.44170bx
465.1507XRECORD TOP TEAM RECORD BANK3:41:185:15 11.44171bx
466.914FTOOCEE-EMWAY TWO OCMW WAREGEM3:41:205:15 11.444rf
467.1173XMP TEAM BNP PARIBAS FOR3:41:225:15 11.44172bx
468.503AVIABEL AVIABEL3:41:245:15 11.44107bm
469.508DYNO C AW EUROPE3:41:255:15 11.43108bm
470.1361GARAGE3 COLRUYT GROUP3:41:285:15 11.43109bm
471.530XSHELL RUNNERS 1 BELGIAN SHELL N3:41:295:15 11.43173bx
472.776HERMÈS DREAMTEAM HERMÈS ENGINEER3:41:305:15 11.43110bm
473.1261XSIEMENS THE AUTOMATION RU SIEMENS3:41:315:15 11.43174bx
474.1477XDIRECTIE ETERNIT NV3:41:325:16 11.43175bx
475.240XGSF SINT-GILLIS-WAAS 3:41:325:16 11.4352rx
476.1112CAS ROADRUNNERS BNP PARIBAS FOR3:41:335:16 11.43111bm
477.132FAVMO GIRLS AVMO3:41:335:16 11.4317cf
478.1324XPROUD2BEINGLIONS 3:41:405:16 11.42176bx
479.1332RUN4CHANGE 3:41:425:16 11.42112bm
480.1484XPROMAT 1 ETERNIT NV3:41:455:16 11.42177bx
481.1551ACERTA - ALLEMAAL GOED "E ACERTA3:41:535:16 11.41113bm
482.1105XBNP PARIBAS FORTIS ARENDO BNP PARIBAS FOR3:41:585:16 11.41178bx
483.144XBANK DEGROOF RUNNERS CLUB 3:42:045:16 11.4053rx
484.1201XSCORE BANKING FASTTRACK BNP PARIBAS FOR3:42:055:16 11.40179bx
485.694XEU GIVE EUR HOPE - SMART EU GIVE EUR HOP3:42:095:16 11.40180bx
486.580XHERMALLE REVALI CHC3:42:095:16 11.4054rx
487.102X3COUNTRIES 3:42:135:16 11.3955rx
488.848KEYRUS CHALLENGERS KEYRUS3:42:145:16 11.39114bm
489.1571ACERTA - THE SERVER BREAK ACERTA3:42:195:17 11.39115bm
490.1312XLILLY WOOD AND THE PRICK 3:42:195:17 11.39181bx
491.218XDOWN THE ROAD, DOWN THE T 3:42:265:17 11.3856rx
492.372XTEAM GEEURICKX 2 3:42:305:17 11.3857rx
493.1336SKYBAR TEAM 3:42:315:17 11.38116bm
494.1023XSPORTOASE SDK SPORTOASE3:42:365:17 11.37182bx
495.1443P&G - MULTUMESC PROCTER & GAMBL3:42:375:17 11.37117bm
496.355XSIX-PACK 3:42:385:17 11.3758rx
497.1424XDELOITTE ERS DELOITTE3:42:385:17 11.37183bx
498.506DYNO A AW EUROPE3:42:395:17 11.37118bm
499.1438XP&G - GPS TEAM PROCTER & GAMBL3:42:415:17 11.37184bx
500.1065XVALESTA VALESTA3:42:455:17 11.37185bx
DNF: abandon; DSQ: disqualifié; Vitesse en km/h
09/12/2022 - 06:41 - 1551 Entrées
ChronoRace - Electronic Timing SPRL
http://www.chronorace.be

Page 10 / 32  
Acerta Brussels Ekiden
CAP Brussels, 18/10/2014, BEL
Ekiden - Classement
42.195km 
Catégorie
PosNrNomAgeEquipeTempsTkmMoy.RangNomLocalité
501.1567XACERTA - TESTRUNNERS ACERTA3:42:475:17 11.36186bx
502.892BALTA 6 N.V. BALTA INDU3:42:525:17 11.36119bm
503.1178XPERF BETA BNP PARIBAS FOR3:42:535:17 11.36187bx
504.757XUNICEF-GSK VACCINES 5 GLAXOSMITHKLINE3:42:565:17 11.36188bx
505.911XNUMECA-2 NUMECA INTERNAT3:42:585:18 11.35189bx
506.420XZNA 3:42:595:18 11.3559rx
507.720XEUNITED ET AL EUNITED3:43:065:18 11.35190bx
508.608XDELHAIZE 5 DELHAIZE GROUP 3:43:105:18 11.34191bx
509.1540XKEEP ON RUNNERS SELECT HR3:43:115:18 11.34192bx
510.961XLAB86 RC 127 BIS3:43:145:18 11.3460rx
511.647XEU GIVE EUR HOPE - COOL R EU GIVE EUR HOP3:43:185:18 11.34193bx
512.1086XPERTHIS SOUTH XPERTHIS3:43:255:18 11.33120bm
513.1068VAN MARCKE 4 VAN MARCKE NV3:43:265:18 11.33121bm
514.1478ETERNIT 1 ETERNIT NV3:43:285:18 11.33122bm
515.650XEU GIVE EUR HOPE - DG TRA EU GIVE EUR HOP3:43:325:18 11.33194bx
516.819XRUNSPAMMERS JANSSEN PHARMAC3:43:345:18 11.32195bx
517.1593XLCM - REGIO MECHELEN-TURN CM ZIEKENFONDS3:43:415:19 11.32196bx
518.1024XSPORTOASE SEB SPORTOASE3:43:435:19 11.32197bx
519.428S&P RUNNING TEAM 2 A. SCHETS & PAR3:43:485:19 11.31123bm
519.380XTHE FLYING FRIENDS 3:43:485:19 11.3161rx
521.215XDIE WIESEL 3:43:515:19 11.3162rx
522.865XCHIMA LEGO BELGIË NV3:43:535:19 11.31198bx
523.907XNORBERT DENTRESSANGLE 2 NORBERT DENTRES3:43:575:19 11.31199bx
524.1681XTEAM LIMITLESS 3:44:035:19 11.3063rx
525.1582SBB ACCOUNTANTS LEUVEN SBB3:44:045:19 11.30124bm
526.1009XSOMATI FIE SOMATI FIE3:44:065:19 11.30200bx
527.652XEU GIVE EUR HOPE - EASME EU GIVE EUR HOP3:44:085:19 11.30201bx
528.481XAS ADVENTURE TEAM BEA AS ADVENTURE3:44:095:19 11.29202bx
529.1513CATERPILLAR TEAM 10 CATERPILLAR3:44:125:19 11.29125bm
530.980XSAGA CONSULTING GROUP SAGA CONSULTING3:44:145:19 11.29203bx
531.970XRTBF NAMUR RTBF3:44:145:19 11.29204bx
532.1672XVRT-VITAMINS VRT3:44:205:19 11.29205bx
533.243XHANDBOOGHOF 1 3:44:255:20 11.2864rx
534.655XEU GIVE EUR HOPE - ENJGMA EU GIVE EUR HOP3:44:265:20 11.28206bx
535.667EU GIVE EUR HOPE - LEGION EU GIVE EUR HOP3:44:315:20 11.28126bm
536.943XTIGERS PMV3:44:415:20 11.27207bx
537.1592KAZOU CM ZIEKENFONDS3:44:425:20 11.27127bm
538.370XTEAM AYAM 3:44:445:20 11.2765rx
539.925XOXY RUNNERS OXYRANE NV3:44:445:20 11.27208bx
540.1426DELOITTE TEAM 1 DELOITTE3:44:455:20 11.27128bm
541.1029XSTABO - AR-TE STABO CVBA3:44:455:20 11.27209bx
542.1088XT-I TEAM 1 XTREME INTEGRAT3:44:455:20 11.26129bm
543.1529XEY FSO TEAM 2 EY3:44:475:20 11.26210bx
544.224XELARG 3:44:515:20 11.2666rx
545.1390XCRELAN IT CRELAN NV3:44:525:20 11.26211bx
546.1374T&I COLRUYT GROUP3:44:525:20 11.26130bm
547.930XPUISSANCE 6 PARTENA BUSINES3:44:565:20 11.26212bx
548.437XACCENTURE TEAM 6 ACCENTURE NV3:45:035:20 11.25213bx
549.444XADIMAT ADIMAT3:45:045:21 11.25214bx
550.1379XJUPILER RUNNING BULLS AB INBEV3:45:095:21 11.24215bx
DNF: abandon; DSQ: disqualifié; Vitesse en km/h
09/12/2022 - 06:41 - 1551 Entrées
ChronoRace - Electronic Timing SPRL
http://www.chronorace.be

Page 11 / 32  
Acerta Brussels Ekiden
CAP Brussels, 18/10/2014, BEL
Ekiden - Classement
42.195km 
Catégorie
PosNrNomAgeEquipeTempsTkmMoy.RangNomLocalité
551.459XALLIANZ HAPPY TEAM 1 ALLIANZ BENELUX3:45:135:21 11.24216bx
552.569XCANDRIAM 2 CANDRIAM BELGIU3:45:175:21 11.24217bx
553.487XASCO PROCUREMENT ASCO INDUSTRIES3:45:175:21 11.24218bx
554.1174XNAMERS BNP PARIBAS FOR3:45:175:21 11.24219bx
555.1183XPMO ALPHACREDIT BNP PARIBAS FOR3:45:185:21 11.24220bx
556.798XINCC-NICC INCC-NICC3:45:185:21 11.24221bx
557.834XKBC GROUP FINANCE RUNNING KBC3:45:225:21 11.23222bx
558.1227XTHE MUTUALS BNP PARIBAS FOR3:45:235:21 11.23223bx
559.1453XUCB CLUB - FINANCE ACT TE UCB PHARMA3:45:235:21 11.23224bx
560.261XJEROEN - BROEDERSCHOLEN 3:45:245:21 11.2367rx
561.675XEU GIVE EUR HOPE - NANO EU GIVE EUR HOP3:45:375:21 11.22225bx
562.260XJE COURS POUR MES FORMES 3:45:375:21 11.2268rx
563.546XOVB 2 BOUW.PUNT OVB3:45:385:21 11.22226bx
564.901XNGAGE CONSULTING A NGAGE CONSULTIN3:45:405:21 11.22227bx
565.662XEU GIVE EUR HOPE - INTERR EU GIVE EUR HOP3:45:445:21 11.22228bx
566.791XHAPPY FAMILY HP3:45:475:22 11.21229bx
567.770HANSEA 2 HANSEA3:45:545:22 11.21131bm
568.114XANDALOUSERS 3:45:585:22 11.2069rx
569.1518XCATERPILLAR TEAM 6 CATERPILLAR3:45:585:22 11.20230bx
570.656XEU GIVE EUR HOPE - EPIC O EU GIVE EUR HOP3:45:595:22 11.20231bx
571.1480MANASCO 1 ETERNIT NV3:46:005:22 11.20132bm
572.782HOPITAL ERASME 1 HÔPITAL ERASME3:46:065:22 11.20133bm
573.1408XFUSION DVV DVV3:46:085:22 11.20232bx
574.1347THE USUAL SUSPECTS 3:46:095:22 11.20134bm
575.986SCA TEAM SCA HYGIENE PRO3:46:185:22 11.19135bm
576.630XEMERSON TEAM THREE EMERSON PROCESS3:46:185:22 11.19233bx
577.890XBALTA 4 N.V. BALTA INDU3:46:195:22 11.19234bx
578.621XEASI EASI3:46:315:23 11.18235bx
579.960QUINTENS MORLANWELZ QUINTENS GROUP3:46:375:23 11.17136bm
580.695XEU GIVE EUR HOPE - SPEED EU GIVE EUR HOP3:46:465:23 11.16236bx
581.320XOLSE AC MERKSEM OLSE A-C MERKSE3:46:485:23 11.1635cx
582.854XKSB 2 KSB BELGIUM S.A3:46:495:23 11.16237bx
583.512XAXA BENOIT AXA BELGIUM3:46:495:23 11.16238bx
584.660XEU GIVE EUR HOPE - H.R. H EU GIVE EUR HOP3:46:495:23 11.16239bx
585.1283XDOPING 3:46:515:23 11.16240bx
586.1281XDISINTEGRATED 3:46:525:23 11.16241bx
587.567XBUY WAY EXPERTS BUY WAY PERSONA3:46:525:23 11.16242bx
588.700XEU GIVE EUR HOPE - THE A EU GIVE EUR HOP3:46:545:23 11.16243bx
589.249XHOUBA 3:46:545:23 11.1670rx
590.454XCLAIMS AIG EUROPE LIMI3:46:555:23 11.16244bx
591.1535XEY TAX TEAM ANTWERP 1 EY3:46:565:23 11.16245bx
592.1266XTHE RED CHEETAHS ELI LILLY3:46:565:23 11.16246bx
593.897NEOVIA NEOVIA LOGISTIC3:46:585:23 11.15137bm
594.678XEU GIVE EUR HOPE - PULLED EU GIVE EUR HOP3:47:075:23 11.15247bx
595.670XEU GIVE EUR HOPE - LES UN EU GIVE EUR HOP3:47:085:23 11.15248bx
596.423XTEAM 3M 3M BELGIUM3:47:175:24 11.14249bx
597.178XCOOL RUNNINGS 3:47:225:24 11.1471rx
598.1260XSIEMENS MAS LOCO TEAM SIEMENS3:47:235:24 11.13250bx
599.1396XBELFIUS INSURANCE IT DVV3:47:275:24 11.13251bx
600.1512XCATERPILLAR TEAM 1 CATERPILLAR3:47:285:24 11.13252bx
DNF: abandon; DSQ: disqualifié; Vitesse en km/h
09/12/2022 - 06:41 - 1551 Entrées
ChronoRace - Electronic Timing SPRL
http://www.chronorace.be

Page 12 / 32  
Acerta Brussels Ekiden
CAP Brussels, 18/10/2014, BEL
Ekiden - Classement
42.195km 
Catégorie
PosNrNomAgeEquipeTempsTkmMoy.RangNomLocalité
601.1498ELECTRABEL 6 ELECTRABEL GDF 3:47:285:24 11.13138bm
602.258XJCAVMO ORANJE DUIVELS AVMO TIELT3:47:295:24 11.1336cx
603.1015SPACEMEN SPACE APPLICATI3:47:335:24 11.13139bm
604.1109BOO CPBB MAKES YOU FEEL G BNP PARIBAS FOR3:47:345:24 11.13140bm
605.893XNALYS TEAM 1 NALYS3:47:355:24 11.12253bx
606.753XUNICEF-GSK VACCINES 1 GLAXOSMITHKLINE3:47:435:24 11.12254bx
607.839XKRUGERRAND'S KBC BANK3:47:435:24 11.12255bx
608.1633XTHE STELLA RUNNERS AB-INBEV3:47:515:24 11.11256bx
609.126XATTENTIA PURE FUN 3:47:535:25 11.1172rx
610.353XSIP 2 3:48:065:25 11.1073rx
611.669XEU GIVE EUR HOPE - LES ET EU GIVE EUR HOP3:48:075:25 11.10257bx
612.1505XRECORD BANK PRODUCT MANAG RECORD BANK3:48:085:25 11.10258bx
613.529XBELFIUS CHARLEROI-SUD BELFIUS CHARLER3:48:085:25 11.10259bx
614.1321XPEPPI'S 3:48:105:25 11.10260bx
615.1085XPERTHIS NORTH XPERTHIS3:48:115:25 11.10141bm
616.570XCANDRIAM 3 CANDRIAM BELGIU3:48:135:25 11.09261bx
617.710EU GIVE EUR HOPE : EUMS 0 EU GIVE EUR HOP3:48:165:25 11.09142bm
618.548XVAN DER GUCHT 1 BOUW.PUNT VAN D3:48:205:25 11.09262bx
619.1286XHIROHITO AND THE LAST SUR 3:48:215:25 11.09263bx
620.800XINFRAX TEAM 1 INFRAX3:48:225:25 11.09264bx
621.413XWE THOUGHT THEY SAID RUM 3:48:235:25 11.0974rx
622.951XPRAYON 2 CONTRÔLE DE GEST PRAYON SA3:48:295:25 11.08265bx
623.1501XELECTRABEL 9 ELECTRABEL GDF 3:48:325:25 11.08266bx
624.154XBLAUWTJESLOPERS 3:48:345:26 11.0875rx
625.748XGE CAPITAL FLEET SERVICES GE CAPITAL FLEE3:48:375:26 11.07267bx
626.1490HUBER FOREVER 2 3:48:395:26 11.0740rm
627.303XMATHIS 3:48:395:26 11.0776rx
628.1429XDELOITTE TEAM 7 DELOITTE3:48:415:26 11.07268bx
629.1319PASSO DELLO STELVIO 3:48:475:26 11.07143bm
630.766XGOODMAN TEAM 2 GOODMAN MANAGEM3:48:505:26 11.06269bx
631.1340XTEAM AWESOME 3:48:505:26 11.06270bx
632.257XISCB 3:48:525:26 11.0677rx
633.677XEU GIVE EUR HOPE - PATA N EU GIVE EUR HOP3:48:525:26 11.06271bx
634.1348XTS SALES DREAM TEAM 3:48:555:26 11.06272bx
635.1562XACERTA - PUBLIC_AMPS ACERTA3:48:575:26 11.06273bx
636.1491XWARRIORS 3:49:015:26 11.0678rx
637.1354COLRUYT BI COLRUYT GROUP3:49:065:26 11.05144bm
638.804XINTEGRALE 1 INTEGRALE3:49:085:26 11.05274bx
639.1620XTHE JALAPENO PEPPERS! ALCON NV3:49:115:26 11.05275bx
640.1048XTEAM GENKI TOYOTA MOTOR EU3:49:135:26 11.05276bx
641.1089XT-I TEAM 2 XTREME INTEGRAT3:49:135:26 11.05145bm
642.452XWONEN-VLAANDEREN 2 AGENTSCHAP WONE3:49:135:26 11.05277bx
643.1694XLES LIONS VÉLOCES 3:49:135:26 11.05278bx
644.316XNOT FAST, JUST FURIOUS 3:49:185:27 11.0479rx
645.832XKBC FINANCE BELGIË1 KBC3:49:205:27 11.04279bx
646.827XJ&J GTSC 2 JOHNSON & JOHNS3:49:225:27 11.04280bx
647.801INFRAX TEAM 2 INFRAX3:49:235:27 11.04146bm
648.361XSPORTIEVE GEMEENTE ZEMST 3:49:275:27 11.0380rx
649.553XDREAMTEAM DECKERS BOUWPUN BOUWPUNT DECKER3:49:285:27 11.03281bx
650.534XBELIRIS BELIRIS3:49:325:27 11.03282bx
DNF: abandon; DSQ: disqualifié; Vitesse en km/h
09/12/2022 - 06:41 - 1551 Entrées
ChronoRace - Electronic Timing SPRL
http://www.chronorace.be

Page 13 / 32  
Acerta Brussels Ekiden
CAP Brussels, 18/10/2014, BEL
Ekiden - Classement
42.195km 
Catégorie
PosNrNomAgeEquipeTempsTkmMoy.RangNomLocalité
651.899XTEAM 2 EUROMOLD NEXANS BENELUX3:49:345:27 11.03283bx
652.1251SIEMENS EA TEAM SIEMENS3:49:385:27 11.03147bm
653.427XS&P RUNNING TEAM 1 A. SCHETS & PAR3:49:405:27 11.02284bx
654.1602XBPOST - FINANCE A ACTISOC - BPOST3:49:405:27 11.02285bx
655.1585XVDV KEMPEN VDV3:49:415:27 11.02286bx
656.1307XLENDING AWESOME MIX 3:49:435:27 11.02287bx
657.1222XTHE GREEN STARS BNP PARIBAS FOR3:49:505:27 11.02288bx
658.170XCEDRIC WELCOME TEAM 3:49:515:27 11.0281rx
659.1692XHET FACILITAIR BEDRIJF - HET FACILITAIR 3:49:515:27 11.01289bx
660.1177PERF ALPHA BNP PARIBAS FOR3:50:035:28 11.01148bm
661.1502XRECORD BANK CREDITS RECORD BANK3:50:095:28 11.00290bx
662.204XDE ROOVER "SPEEDTEAM" 3:50:095:28 11.0082rx
663.1536XEY TAX TEAM ANTWERP 2 EY3:50:125:28 11.00291bx
664.1207XTAX MAX BNP PARIBAS FOR3:50:125:28 11.00292bx
665.1225XTHE MARATHON KILLERS BNP PARIBAS FOR3:50:175:28 10.99293bx
666.1303XING ZUIDERPOORTERS 3:50:205:28 10.99294bx
667.1000XSIOENRUNNERS SIOEN INDUSTRIE3:50:275:28 10.99295bx
668.906XNORBERT DENTRESSANGLE 1 NORBERT DENTRES3:50:285:28 10.99296bx
669.1294ING MARKETING - A PERFECT 3:50:285:28 10.99149bm
670.461ALLNEX 1 ALLNEX BELGIUM3:50:305:28 10.98150bm
671.654XEU GIVE EUR HOPE - ENERGY EU GIVE EUR HOP3:50:305:28 10.98297bx
672.1677XVGD ZELE AUDIT VGD GENT3:50:355:28 10.98298bx
673.1277CORPORATE FINISHERS 3:50:365:28 10.98151bm
674.1063XMASSIS 2 UZ GENT3:50:375:28 10.98299bx
675.1523XEY ADVISORY TEAM EY3:50:485:29 10.97300bx
676.1370XSPAR SD COLRUYT GROUP3:50:495:29 10.97301bx
677.812XIREX-CONSULTING IREX CONSULTING3:50:505:29 10.97302bx
678.1075XVLAM - LEKKER VAN BIJ ONS VLAM - LEKKER V3:50:505:29 10.97303bx
679.1631XJUPILER AB INBEV3:50:525:29 10.97304bx
680.1673XVGD GENT VGD GENT3:50:535:29 10.97305bx
681.921XCARDIO RUNNERS ONZE LIEVE VROU3:50:555:29 10.96306bx
682.1034SWIFT LEGAL SWIFT3:50:595:29 10.96152bm
683.1255XSIEMENS IMO 1 SIEMENS3:50:595:29 10.96307bx
684.1436XP&G - GE-VECTORS PROCTER & GAMBL3:51:005:29 10.96308bx
685.558XBRUSSELS EXPO BRUSSELS EXPO3:51:045:29 10.96309bx
686.383XTHE ROADRUNNERS 3:51:055:29 10.9683rx
687.649XEU GIVE EUR HOPE - DG ELA EU GIVE EUR HOP3:51:075:29 10.95310bx
688.691XEU GIVE EUR HOPE - SG MAS EU GIVE EUR HOP3:51:125:29 10.95311bx
689.737XFOOD.BE FEVIA ASBL3:51:135:29 10.95312bx
690.1406XDVV VLH VERZEKERINGEN 1 DVV3:51:185:29 10.95313bx
691.1310XLES ORANGES PRESSEES 3:51:205:29 10.94314bx
692.1346XTHE RUNNING TEAM 3:51:235:30 10.94315bx
693.431XA-TEAM ABSOLUTE AGENCY3:51:235:30 10.94316bx
694.1192XRUN FOR FUN BNP PARIBAS FOR3:51:275:30 10.94317bx
695.665XEU GIVE EUR HOPE - JRC-GE EU GIVE EUR HOP3:51:285:30 10.94318bx
696.465TEAM 2 ALTACHEM NV3:51:335:30 10.93153bm
697.1287XING - RÉGION EMBOURG 3:51:335:30 10.93319bx
698.469XAMCHAM EU AMERICAN CHAMBE3:51:365:30 10.93320bx
699.767XGOODMAN TEAM 3 GOODMAN MANAGEM3:51:385:30 10.93321bx
700.1532EY INDIRECT TAX TEAM 2 EY3:51:415:30 10.93154bm
DNF: abandon; DSQ: disqualifié; Vitesse en km/h
09/12/2022 - 06:41 - 1551 Entrées
ChronoRace - Electronic Timing SPRL
http://www.chronorace.be

Page 14 / 32  
Acerta Brussels Ekiden
CAP Brussels, 18/10/2014, BEL
Ekiden - Classement
42.195km 
Catégorie
PosNrNomAgeEquipeTempsTkmMoy.RangNomLocalité
701.484XASCO ID ++ ASCO INDUSTRIES3:51:435:30 10.93322bx
702.1093XZORGNET VLAANDEREN 1 ZORGNET VLAANDE3:51:475:30 10.92323bx
703.716XEU GIVE EUR HOPE : UNBREA EU GIVE EUR HOP3:51:525:30 10.92324bx
704.990XSECUREX I SECUREX3:51:525:30 10.92325bx
705.1252XSIEMENS ENERGY MNT BEYOND SIEMENS3:51:555:30 10.92326bx
706.1450XP&G - WILL RUN FOR BEER PROCTER & GAMBL3:51:575:30 10.92327bx
707.668XEU GIVE EUR HOPE - LES CO EU GIVE EUR HOP3:51:585:30 10.91328bx
708.781XWII NOT FIT HONEYWELL NV3:51:585:30 10.91329bx
709.1147XHAPPY BNP PARIBAS FOR3:51:585:30 10.91330bx
710.343FRIWAWOMEN RIXENSART WAVRE3:51:595:30 10.9118cf
711.1403XDVV FILIP STERKENS 2 DVV3:52:005:30 10.91331bx
712.940XKANGEROOS PMV3:52:015:30 10.91332bx
713.1577XAMVG ACCOUNTANTS & BELAST AMVG3:52:095:31 10.91333bx
714.1002XSMALS SMALS3:52:105:31 10.90334bx
715.1069XVAN MARCKE 5 VAN MARCKE NV3:52:195:31 10.90335bx
716.1652DE DBEESTEN DEUTSCHE BANK A3:52:195:31 10.90155bm
717.1331XRUN FORWARD 3:52:335:31 10.89336bx
718.556BRUSSELS AIRPORT SD BRUSSELS AIRPOR3:52:335:31 10.89156bm
719.944XPPD1 PPD3:52:335:31 10.89337bx
720.453XAGORIA AGORIA3:52:375:31 10.88338bx
721.835XCLASS OF 77 KBC BANK3:52:385:31 10.88339bx
722.259XJCAVMO ORANJE HELDEN AVMO TIELT3:52:395:31 10.8837cx
723.369TEAM AWESOME 3:52:405:31 10.8841rm
724.1519XCATERPILLAR TEAM 7 CATERPILLAR3:52:405:31 10.88340bx
725.747XGE CAPITAL FLEET SERVICES GE CAPITAL FLEE3:52:415:31 10.88341bx
726.1231XTO BE FAST-TEAM BNP PARIBAS FOR3:52:435:31 10.88342bx
727.494XTHE SIXTH SENSE ASTRAZENECA3:52:435:31 10.88343bx
728.1254XSIEMENS FUN&SUPPORT2 SIEMENS3:52:445:31 10.88344bx
729.588CONUNDRA CONUNDRA3:52:445:31 10.88157bm
730.712XEU GIVE EUR HOPE : REGIO EU GIVE EUR HOP3:52:455:31 10.88345bx
731.1253XSIEMENS FUN&SUPPORT1 SIEMENS3:52:465:31 10.88346bx
732.1300XING SMETS FAMILY 3:52:495:32 10.87347bx
733.703XEU GIVE EUR HOPE - TURBOT EU GIVE EUR HOP3:52:535:32 10.87348bx
734.1133FACILITY PROJECTS & MDP BNP PARIBAS FOR3:52:545:32 10.87158bm
735.1091XZOETIS LLN 2 ZOETIS3:52:555:32 10.87349bx
736.1459XUCB CLUB - LET'S GO UCB PHARMA3:52:585:32 10.87350bx
737.347RUNNING CLUB WEZEMBEEK-OP 3:52:595:32 10.87159bm
738.408XWABISABI 3:53:045:32 10.8684rx
739.568XCANDRIAM 1 CANDRIAM BELGIU3:53:065:32 10.86351bx
740.1574XACERTA - YART ACERTA3:53:085:32 10.86352bx
741.777XHILTI HILTI BELGIUM3:53:095:32 10.86353bx
742.978TEAM TOWER RVP3:53:105:32 10.86160bm
743.1305XIPACS FOR EVER 3:53:125:32 10.86354bx
744.863XLEASEPLAN SALES LEASEPLAN3:53:165:32 10.85355bx
745.1245FSTIBBE LADIES STIBBE3:53:215:32 10.853bf
746.1233UP AND RUNNING! BNP PARIBAS FOR3:53:215:32 10.85161bm
747.1678XVGD ZELE CORPORATE FINANC VGD GENT3:53:265:32 10.85356bx
748.1067XVAN MARCKE 3 VAN MARCKE NV3:53:275:32 10.85357bx
749.724LES TOGETHERS EUROMATEC3:53:285:32 10.84162bm
750.1659XKBC BLUE PEARLS KBC GROEP NV3:53:305:33 10.84358bx
DNF: abandon; DSQ: disqualifié; Vitesse en km/h
09/12/2022 - 06:41 - 1551 Entrées
ChronoRace - Electronic Timing SPRL
http://www.chronorace.be

Page 15 / 32  
Acerta Brussels Ekiden
CAP Brussels, 18/10/2014, BEL
Ekiden - Classement
42.195km 
Catégorie
PosNrNomAgeEquipeTempsTkmMoy.RangNomLocalité
751.1270AGILE RUNNERS 2014 3:53:335:33 10.84163bm
752.543XBOUW.PUNT OTTEVAERE BOUW.PUNT OTTEV3:53:335:33 10.84359bx
753.1661XCHOCOMANIA THE SEQUEL NATRA MALLE3:53:375:33 10.84360bx
754.968XRSZ VRIENDENKRING 2 - ONS RSZ3:53:425:33 10.83361bx
755.725XEUROPEAN CITIZEN ACTION S EUROPEAN CITIZE3:53:465:33 10.83362bx
756.175XCLEMENTONI 3:53:495:33 10.8385rx
757.697XEU GIVE EUR HOPE - SUPERM EU GIVE EUR HOP3:53:525:33 10.83363bx
758.1543XFANTASTIC SIX MOBISTAR3:53:545:33 10.82364bx
759.276XLES COUMAS 3:53:585:33 10.8286rx
760.1369SPAR ASB-TEAM COLRUYT GROUP3:53:585:33 10.82164bm
761.307XMG CLUB 3:54:005:33 10.8287rx
762.1650XBPOST BANK BPOST BANK3:54:025:33 10.82365bx
763.1646XAG INSURANCE AG INSURANCE3:54:025:33 10.82366bx
764.883XIETS HEEL SPECIAALS MSD3:54:035:33 10.82367bx
765.1506XRECORD DROCER RECORD BANK3:54:035:33 10.82368bx
766.785XHOPITAL ERASME 4 HÔPITAL ERASME3:54:115:33 10.81369bx
767.229XFAMILIE MASURE & CO 3:54:115:33 10.8188rx
768.1036FSWIFT W-ONE SWIFT3:54:115:33 10.814bf
769.758XUNICEF-GSK VACCINES 6 GLAXOSMITHKLINE3:54:125:34 10.81370bx
770.896XNEOPOST NEOPOST3:54:135:34 10.81371bx
771.1182XPLAYING FOR SUCCESS 2 BNP PARIBAS FOR3:54:165:34 10.81372bx
772.1472XENSEMBLE EN CHEMIN 4 3:54:185:34 10.8189rx
773.1139XFLYBI’S BNP PARIBAS FOR3:54:185:34 10.81373bx
774.176CLUB GM 3:54:205:34 10.8042rm
775.147XB-DSK(ROUGE) 3:54:225:34 10.8090rx
776.1550XACERTA - ACERTAWALLO ACERTA3:54:235:34 10.80374bx
777.1371XSYMÉTA1 COLRUYT GROUP3:54:255:34 10.80375bx
778.475XAPB TEAM 3 APB3:54:275:34 10.80376bx
779.1087XWE RUN FOR YOUR WORDS XPLANATION LANG3:54:305:34 10.80377bx
780.1520XCATERPILLAR TEAM 8 CATERPILLAR3:54:315:34 10.80378bx
781.217XDISCOUNTER 3:54:325:34 10.7991rx
782.1194XRUN-FORTIS-RUN BNP PARIBAS FOR3:54:395:34 10.79379bx
783.605XDELHAIZE 2 DELHAIZE3:54:415:34 10.79380bx
784.544XKESTELYN-DEVOS BOUW.PUNT OTTEV3:54:425:34 10.79381bx
785.1106BNP PARIBAS FORTIS EXCO R BNP PARIBAS FOR3:54:445:34 10.79165bm
786.1096XA&B ANTWERPEN BNP PARIBAS FOR3:54:455:34 10.78382bx
787.1022XSPORTOASE SCB 2 SPORTOASE3:54:485:34 10.78383bx
788.696XEU GIVE EUR HOPE - STROLL EU GIVE EUR HOP3:54:525:34 10.78384bx
789.310FMOTHERS&DAUGHTERS ATLETIEKCLUB PA3:54:545:35 10.7819cf
790.616DIEGO D'IETEREN NV3:54:555:35 10.78166bm
791.1038XTHE HOUSE OF MARKETING THE HOUSE OF MA3:54:555:35 10.78385bx
792.1250SIEMENS DE DRIVERS SIEMENS3:54:555:35 10.78167bm
793.513XAXA DANIEL AXA BELGIUM3:54:575:35 10.78386bx
794.1166XLES WIDL RUNNERS BNP PARIBAS FOR3:54:585:35 10.77387bx
795.645XEU GIVE EUR HOPE - COMM'O EU GIVE EUR HOP3:55:035:35 10.77388bx
796.1051XTGBULLETS TWEDDLE3:55:065:35 10.77389bx
797.684XEU GIVE EUR HOPE - REGIO EU GIVE EUR HOP3:55:095:35 10.77390bx
798.1446XP&G - PACK DEV 3 PROCTER & GAMBL3:55:125:35 10.76391bx
799.425X4D VISION 4D VISION3:55:155:35 10.76392bx
800.559IBGEBIM INSPECT A BRUXELLES ENVIR3:55:165:35 10.7643rm
DNF: abandon; DSQ: disqualifié; Vitesse en km/h
09/12/2022 - 06:41 - 1551 Entrées
ChronoRace - Electronic Timing SPRL
http://www.chronorace.be

Page 16 / 32  
Acerta Brussels Ekiden
CAP Brussels, 18/10/2014, BEL
Ekiden - Classement
42.195km 
Catégorie
PosNrNomAgeEquipeTempsTkmMoy.RangNomLocalité
801.1099XALL STARS BNPP BNP PARIBAS FOR3:55:185:35 10.76393bx
802.230FFLUXYS GAZELLES 3:55:195:35 10.765rf
803.1651XCONTACT CENTER & CO DEUTSCHE BANK A3:55:225:35 10.76394bx
804.346XRUN4FUN WEMMEL I 3:55:245:35 10.7592rx
805.495XATRADIUS RUNNING TEAM 1 ATRADIUS CREDIT3:55:325:35 10.75395bx
806.389XTOUS A BORD 2 3:55:365:36 10.7593rx
807.844XKBC SCHOTEN KBC BANK NV3:55:375:36 10.75396bx
808.993XSECURITAS 1 SECURITAS NV3:55:395:36 10.74397bx
809.769XTOO FAST FOR YOU GSJ ADVOCATEN3:55:395:36 10.74398bx
810.318XOHANA 3:55:415:36 10.7494rx
811.1279XDE GARANTIE BIJ ING 3:55:415:36 10.74399bx
812.658XEU GIVE EUR HOPE - GEELEC EU GIVE EUR HOP3:55:435:36 10.74400bx
813.872XMARSH 1 MARSH S.A3:55:445:36 10.74401bx
814.1115CEBO BNP PARIBAS FOR3:55:455:36 10.74168bm
815.663XEU GIVE EUR HOPE - INTERR EU GIVE EUR HOP3:55:475:36 10.74402bx
816.657XEU GIVE EUR HOPE - FLYING EU GIVE EUR HOP3:55:495:36 10.74403bx
817.1383XSUPER PACKAGING TEAM ABI BENEFRALUX3:55:505:36 10.74404bx
818.1441XP&G - MPD PACKAGING PROCTER & GAMBL3:55:505:36 10.74405bx
819.885MULTIPLICOM - TEAM 2 MULTIPLICOM3:56:005:36 10.73169bm
820.857XLABORELEC LABORELEC3:56:015:36 10.73406bx
821.467ALVEY ALVEY NV3:56:035:36 10.73170bm
822.1560XACERTA - OPRUNNERS ACERTA3:56:045:36 10.72407bx
823.1191XRUN FOR CASH BNP PARIBAS FOR3:56:095:36 10.72408bx
824.971XDE ANDERE FENIX RUIMTE VLAANDER3:56:105:36 10.72409bx
825.1364XIN CONTACT2 COLRUYT GROUP3:56:145:36 10.72410bx
826.180XCRAZY SNAILS 3:56:145:36 10.7295rx
827.1561XACERTA - PORTERNOVELLI ACERTA3:56:165:36 10.72411bx
828.1351XBLOEMKOOL COLRUYT GROUP3:56:165:36 10.72412bx
829.1553XACERTA - CONJAK ACERTA3:56:175:36 10.71413bx
830.1670XVRT-RADIO2 VRT3:56:195:37 10.71414bx
831.634EU GIVE EUR HOPE - AFILIA EU GIVE EUR HOP3:56:215:37 10.71171bm
832.1618XTEAM AWESOME ALCON NV3:56:215:37 10.71415bx
833.255XIKAZBAN FAMILY 3:56:225:37 10.7196rx
834.858XLAR RUNNING TEAM I LAR3:56:225:37 10.71416bx
835.840XLOSLOPEND WILD KBC BANK3:56:235:37 10.71417bx
836.620XDS SMITH - PYRAMID BUILDE DS SMITH PACKAG3:56:265:37 10.71418bx
837.557XHR TEAM BRUSSELS AIRPORT BRUSSELS AIRPOR3:56:275:37 10.71419bx
838.1053XDE RODE RENNERS UNION NATIONALE3:56:305:37 10.71420bx
839.1658XHANDCRAFTED POWERBEASTS HP3:56:315:37 10.70421bx
840.1667X42 SHADES OF SHAME THROMBOGENICS N3:56:365:37 10.70422bx
841.1463XUCB CLUB- ÉCHARAÏTI UCB PHARMA3:56:375:37 10.70423bx
842.1563XACERTA - ROADRUNNERS ACERTA3:56:385:37 10.70424bx
843.265XJSB RUNNING CLUB B 3:56:395:37 10.7097rx
844.1272XBDCENTER DREAM TEAM 1 3:56:455:37 10.69425bx
845.1402XDVV FILIP STERKENS 1 DVV3:56:455:37 10.69426bx
846.1394FAVKA SUPER TEAM 2 DVV3:56:475:37 10.695bf
847.1210XTEAM CASC 2 BNP PARIBAS FOR3:56:505:37 10.69427bx
848.599XDE RYCKE GEBROEDERS NV DE RYCKE GEBROE3:56:515:37 10.69428bx
849.1581FDE LADIES KANTOOR VDH3:56:535:37 10.696bf
850.1043XTOAR TOAR-ADVICE3:57:065:38 10.68429bx
DNF: abandon; DSQ: disqualifié; Vitesse en km/h
09/12/2022 - 06:41 - 1551 Entrées
ChronoRace - Electronic Timing SPRL
http://www.chronorace.be

Page 17 / 32  
Acerta Brussels Ekiden
CAP Brussels, 18/10/2014, BEL
Ekiden - Classement
42.195km 
Catégorie
PosNrNomAgeEquipeTempsTkmMoy.RangNomLocalité
851.956XPROPAGANDA PROPAGANDA3:57:075:38 10.68430bx
852.1413XSLISSE, CESAR & TOELANTS DVV3:57:085:38 10.68431bx
853.1070XVAN MARCKE 1 VAN MARCKE TRAD3:57:105:38 10.68432bx
854.1146XGROEP LONNESEEL BNP PARIBAS FOR3:57:135:38 10.67433bx
855.1218XTHE FACILITY ROADRUNNERS BNP PARIBAS FOR3:57:145:38 10.67434bx
856.1318XORANGE TURTLES 3:57:185:38 10.67435bx
857.221FDUFFEL AC LADIES DUFFEL AC3:57:265:38 10.6620cf
858.1314OCRD ING TEAM 3:57:305:38 10.66172bm
859.142XBABULOUS 3:57:315:38 10.6698rx
860.335RCB3 RCB3:57:315:38 10.6644cm
861.1557XACERTA - HAAST EN SPOED ACERTA3:57:375:38 10.65436bx
862.576XCER CER3:57:405:38 10.65437bx
863.1568ACERTA - THE ABORTED INCI ACERTA3:57:415:38 10.65173bm
864.869XLES BOULETS LIÉGEOIS MAGOTTEAUX S.A.3:57:445:39 10.65438bx
865.1515XCATERPILLAR TEAM 3 CATERPILLAR3:57:445:39 10.65439bx
866.1202XSIX INCH NAILS BNP PARIBAS FOR3:57:475:39 10.65440bx
867.597XD_LINK D_LINK VZW3:57:485:39 10.65441bx
868.1482XMANASCO 3 ETERNIT NV3:57:495:39 10.65442bx
869.527MYSHOPI BD MYSHOPI3:57:565:39 10.64174bm
870.941XLIONS PMV3:57:585:39 10.64443bx
871.1084XFLYING BUBBLES X2O3:57:585:39 10.64444bx
872.707XEU GIVE EUR HOPE : COR RE EU GIVE EUR HOP3:57:595:39 10.64445bx
873.942XPANTHERS PMV3:57:595:39 10.64446bx
874.1081XWOLTERS KLUWER TRANSPORT WOLTERS KLUWER 3:57:595:39 10.64447bx
875.619XDS SMITH - FIRE FIGHTERS DS SMITH PACKAG3:58:005:39 10.64448bx
876.721XEURAQUA TEAM 1 EURAQUA EUROPE 3:58:045:39 10.63449bx
877.829XMET WEERGA JOX ARCHITECTEN3:58:045:39 10.63450bx
878.278XLES DOD SHAKER 3:58:065:39 10.6399rx
879.611XDE FILELOPERS DEUTSCHE BANK A3:58:125:39 10.63451bx
880.1224XTHE MAGNIFICENT SIX BNP PARIBAS FOR3:58:155:39 10.63452bx
881.443XADESSO FITNESS STEADY ADESSO FITNESS 3:58:165:39 10.63453bx
882.778HONDA DREAM TEAM HONDA BELGIUM3:58:185:39 10.62175bm
883.1341XTFS'ERS 3:58:215:39 10.62454bx
884.928XOKIDO PARTENA BUSINES3:58:255:40 10.62455bx
885.507DYNO B AW EUROPE3:58:265:40 10.62176bm
886.1030XSTATOIL BRUSSELS STATOIL ENERGY 3:58:265:40 10.62456bx
887.1510XTHE BIB BIB FID RECORD BANK3:58:345:40 10.61457bx
888.1648VAN DER GUCHT 2 BOUW.PUNT VAN D3:58:355:40 10.61177bm
889.152XBIGBEN BVL BIGBEN3:58:365:40 10.6138cx
890.894XNALYS TEAM 2 NALYS3:58:385:40 10.61458bx
891.722EUROGLAS - DE LANDTSHEER EUROGLAS DE LAN3:58:385:40 10.61178bm
892.1149XHET RECOVERY TEAM BNP PARIBAS FOR3:58:425:40 10.61459bx
893.424FULL4CEAHEAD 4C CONSULTING3:58:515:40 10.60179bm
894.1104BC KEMPEN MEN BNP PARIBAS FOR3:58:545:40 10.60180bm
895.1042XTHUISZORGWINKEL WVL 2 THUISZORGWINKEL3:58:555:40 10.60460bx
896.1116XCMSC BNP PARIBAS FOR3:58:555:40 10.60461bx
897.628XEMERSON TEAM 2 EMERSON PROCESS3:58:575:40 10.60462bx
898.1127XEKIZEN BNP PARIBAS FOR3:58:585:40 10.59463bx
899.270XLA BELLE EUQUIPE 3:58:595:40 10.59100rx
900.1094XZORGNET VLAANDEREN 2 ZORGNET VLAANDE3:59:015:40 10.59464bx
DNF: abandon; DSQ: disqualifié; Vitesse en km/h
09/12/2022 - 06:41 - 1551 Entrées
ChronoRace - Electronic Timing SPRL
http://www.chronorace.be

Page 18 / 32  
Acerta Brussels Ekiden
CAP Brussels, 18/10/2014, BEL
Ekiden - Classement
42.195km 
Catégorie
PosNrNomAgeEquipeTempsTkmMoy.RangNomLocalité
901.581XSIP 1 CLINIQUES UNIVE3:59:025:40 10.59101rx
902.1357XDREAMBABY COLRUYT GROUP3:59:055:40 10.59465bx
903.1007XSOLYSTIC TEAM 1 SOLYSTIC BELGIU3:59:085:41 10.59466bx
904.1244XZERO PRESSURE BNP PARIBAS FOR3:59:085:41 10.59467bx
905.842TEAM PSO KBC BANK3:59:255:41 10.57181bm
906.1220THE GREEN BEETLES BNP PARIBAS FOR3:59:265:41 10.57182bm
907.1054XDE RODE SPRINTERS UNION NATIONALE3:59:265:41 10.57468bx
908.994XSECURITAS TEAM 2 SECURITAS NV3:59:275:41 10.57469bx
909.1624XBEOBANK TEAM 4 BEOBANK3:59:275:41 10.57470bx
910.1126XEDEGEM LOOPT! BNP PARIBAS FOR3:59:305:41 10.57471bx
911.927XMAGIC MIX PARTENA BUSINES3:59:355:41 10.57472bx
912.1258SIEMENS INDUSTRY SOFTWARE SIEMENS3:59:365:41 10.57183bm
913.604XDELHAIZE 1 DELHAIZE3:59:375:41 10.57473bx
914.1181XPLAYING FOR SUCCESS 1 BNP PARIBAS FOR3:59:405:41 10.56474bx
915.325XP&O ON THE RUN 3:59:415:41 10.56102rx
916.1675XVGD TAX VGD GENT3:59:415:41 10.56475bx
917.352XSIM FOREVER 3:59:435:41 10.56103rx
918.1014SPACEBOYZ SPACE APPLICATI3:59:445:41 10.56184bm
919.1547XTHE TRAFFIC ZONES MOBISTAR3:59:455:41 10.56476bx
920.1609XBPOST TEAM 7 ACTISOC - BPOST3:59:465:41 10.56477bx
921.263XJOGGINGCLUB OETINGEN 3:59:495:41 10.56104rx
922.233FRIENDS 3:59:505:42 10.5644rm
923.156XBORDERS 3:59:525:42 10.56105rx
924.810XTHE BETTER IPSOS IPSOS NV3:59:555:42 10.55478bx
925.1130XEOS DREAM TEAM BNP PARIBAS FOR3:59:565:42 10.55479bx
926.531XSHELL RUNNERS 2 BELGIAN SHELL N3:59:575:42 10.55480bx
927.764XGODIVA GEEKS GODIVA BELGIUM 3:59:585:42 10.55481bx
928.717XEU GIVE EUR HOPE -REGIO F EU GIVE EUR HOP4:00:015:42 10.55482bx
929.442XADESSO FITNESS READY ADESSO FITNESS 4:00:055:42 10.55483bx
930.236XFUNKY BUNCH 4:00:075:42 10.54106rx
931.1128XEN AVANT WALLONIE ! BNP PARIBAS FOR4:00:075:42 10.54484bx
932.141XB.EES 4:00:085:42 10.54485bx
933.859XLAR RUNNING TEAM II LAR4:00:105:42 10.54486bx
934.900XTEAM 3 NEXANS BENELUX NEXANS BENELUX4:00:105:42 10.54487bx
935.286XLES MOUETTES FASCINANTES 4:00:135:42 10.54107rx
936.1509XSIX'RECORD RECORD BANK4:00:145:42 10.54488bx
937.426XSTADSLOPERS A PRODUCTIONS4:00:155:42 10.54489bx
938.1604XBPOST - SIXPACK ACTISOC - BPOST4:00:165:42 10.54490bx
939.1576XACERTA.COM ACERTA4:00:245:42 10.53491bx
940.526XBAXI-REMEHA BAXI BELGIUM4:00:295:42 10.53492bx
941.1190XROYALE 20 BNP PARIBAS FOR4:00:305:42 10.53493bx
942.1223XTHE KATANA BOYS BNP PARIBAS FOR4:00:335:43 10.53494bx
943.1308XLES FORMIDABLES 4:00:345:43 10.52495bx
944.435ACCENTURE TEAM 4 ACCENTURE NV4:00:365:43 10.52185bm
945.1608XBPOST 5B ACTISOC - BPOST4:00:385:43 10.52496bx
946.1020XSPORTOASE OMT SPORTOASE4:00:415:43 10.52497bx
947.1050XTUC RAIL TUC RAIL4:00:465:43 10.52498bx
948.271XLA TEAM 1160 4:00:465:43 10.52108rx
949.1161XLEGAL ON THE MOVE BNP PARIBAS FOR4:00:475:43 10.51499bx
950.811XIPV VZW IPV VZW4:00:575:43 10.51500bx
DNF: abandon; DSQ: disqualifié; Vitesse en km/h
09/12/2022 - 06:41 - 1551 Entrées
ChronoRace - Electronic Timing SPRL
http://www.chronorace.be

Page 19 / 32  
Acerta Brussels Ekiden
CAP Brussels, 18/10/2014, BEL
Ekiden - Classement
42.195km 
Catégorie
PosNrNomAgeEquipeTempsTkmMoy.RangNomLocalité
951.1352XCAT TEAM COLRUYT GROUP4:00:575:43 10.51501bx
951.1656XE-XSTREAM ENGINEERING TEA E-XSTREAM ENGIN4:00:575:43 10.51501bx
953.875XMARSH 4 MARSH S.A.4:00:575:43 10.51503bx
954.1376XABI BNFL FINANCE GO RUNNI 4:00:575:43 10.51504bx
955.227XERWTENSOEP ZONDER MAIZENA 4:01:005:43 10.51109rx
956.1326XR & R TEAM 4:01:015:43 10.50505bx
957.1621XBEOBANK TEAM 1 BEOBANK4:01:015:43 10.50506bx
958.367XTALENTENSCHOOL TURNHOUT 1 4:01:065:43 10.50110rx
959.493XTHE FLYING LADIES AND PAP ASTRAZENECA4:01:065:43 10.50507bx
960.715XEU GIVE EUR HOPE : TEAM A EU GIVE EUR HOP4:01:075:43 10.50508bx
961.349XRUNNING IN THE FAMILY TOO 4:01:085:43 10.50111rx
962.1616XTHINK-PINK DREAMTEAM VZW THINK-PINK4:01:095:43 10.50509bx
963.360XSPORTIEVE GEMEENTE ZEMST 4:01:105:43 10.50112rx
964.1337XSMART'RUNNING 4:01:115:43 10.50510bx
965.853XKSB 1 KSB BELGIUM S.A4:01:115:43 10.50511bx
966.1044XTOXIKON ABC 1 TOXIKON4:01:125:43 10.50512bx
967.1330XRUN BCSI RUN 4:01:135:43 10.50513bx
968.1594XMC VERVIERS CM ZIEKENFONDS4:01:155:44 10.49514bx
969.734EXPERTUM EXPERTUM4:01:165:44 10.49186bm
970.1573XACERTA - WALLACERTA ACERTA4:01:175:44 10.49515bx
971.1417X30 KM PER UUR 4:01:215:44 10.49113rx
972.1531XEY INDIRECT TAX TEAM 1 EY4:01:215:44 10.49516bx
973.362XSPORTING BUIZINGEN 1 4:01:225:44 10.49114rx
974.637XEU GIVE EUR HOPE - BLACK EU GIVE EUR HOP4:01:255:44 10.49517bx
975.864XLEASEPLAN WARRIORS LEASEPLAN FLEET4:01:285:44 10.49518bx
976.1617XDE 7E VERSNELLING ALCON NV4:01:285:44 10.48519bx
977.1107XBNP PARIBAS FORTIS LEDEBE BNP PARIBAS FOR4:01:325:44 10.48520bx
978.595XBOCO CWS-BOCO4:01:345:44 10.48521bx
979.1578XAVEVE BULLS AVEVE4:01:365:44 10.48522bx
980.1122XDILBEEK BNP PARIBAS FOR4:01:395:44 10.48523bx
981.1299XING MARKETING - THE DREAM 4:01:395:44 10.48524bx
982.1325XQUICK 'N DIRTY 4:01:405:44 10.48525bx
983.922XOFS OPEL FINANCIAL 4:01:415:44 10.48526bx
984.1211XTEAM CASC 3 BNP PARIBAS FOR4:01:425:44 10.48527bx
985.1249XSIEMENS CORPORE SANO SIEMENS4:01:445:44 10.47528bx
986.937XBAMAFLEX PLANTYN NV4:01:445:44 10.47529bx
987.953XPRAYON 4 CUSTOMER SERVICE PRAYON SA4:01:485:44 10.47530bx
988.391XTRIPLE 4:01:505:44 10.47115rx
989.1045XTOXIKON ABC 2 TOXIKON4:01:505:44 10.47531bx
990.532XSHELL SUPER 6 BELGIAN SHELL N4:01:525:44 10.47532bx
991.1355XCOLRUYT GROUP VLEVICO COLRUYT GROUP4:01:555:44 10.47533bx
992.496XATRADIUS RUNNING TEAM 2 ATRADIUS CREDIT4:01:565:44 10.47534bx
993.489XAZ COMMEX ASTRAZENECA4:01:575:45 10.46535bx
994.1626XBEOBANK TEAM 6 BEOBANK4:01:585:45 10.46536bx
995.1345XTHE ORANGE RUNNERS 4:01:595:45 10.46537bx
996.384XTHE ROCK'N ROLL TEAM 4:02:005:45 10.46116rx
997.1131XEYE OF THE TIGER BNP PARIBAS FOR4:02:015:45 10.46538bx
998.266XJSB RUNNING CLUB C 4:02:075:45 10.46117rx
999.1295ING MARKETING - EKIDATA 4:02:075:45 10.46187bm
1000.1141XFORREST JUMP BNP PARIBAS FOR4:02:095:45 10.46539bx
DNF: abandon; DSQ: disqualifié; Vitesse en km/h
09/12/2022 - 06:41 - 1551 Entrées
ChronoRace - Electronic Timing SPRL
http://www.chronorace.be

Page 20 / 32  
Acerta Brussels Ekiden
CAP Brussels, 18/10/2014, BEL
Ekiden - Classement
42.195km 
Catégorie
PosNrNomAgeEquipeTempsTkmMoy.RangNomLocalité
1001.1476XENSEMBLE EN CHEMIN 9 4:02:175:45 10.45118rx
1002.1334XSCRAMBLED LEGS 4:02:275:45 10.44540bx
1003.609DERBIGUM TEAM 1 DERBIGUM4:02:325:45 10.44188bm
1004.1387XRT JOSD CMPG4:02:335:45 10.44541bx
1005.1350XWILD CARDS 4:02:335:45 10.44542bx
1006.1188XRISK RUNNERS BNP PARIBAS FOR4:02:355:45 10.44543bx
1007.954PRAYON 5 PRAYON TECHNO 1 PRAYON SA4:02:365:45 10.44189bm
1008.1079XWAAK - TEAM 1 WAAK BW VZW4:02:405:46 10.43544bx
1009.1301XING SUPER PB@SUD 4:02:435:46 10.43545bx
1010.939XPLANTYN PLANTYN NV4:02:435:46 10.43546bx
1011.254IBGEBIM INSPECT B 4:02:485:46 10.4345rm
1012.705XEU GIVE EUR HOPE - UNCOMP EU GIVE EUR HOP4:02:495:46 10.43547bx
1013.1256XSIEMENS IMO 2 SIEMENS4:02:505:46 10.43548bx
1014.555XTHE PEANUT BUTTER CONSPIR BRUSSELS AIRLIN4:02:555:46 10.42549bx
1015.1199XSALES & SERVICE SUPPORT BNP PARIBAS FOR4:02:575:46 10.42550bx
1016.661XEU GIVE EUR HOPE - I RUNN EU GIVE EUR HOP4:02:585:46 10.42551bx
1017.803XINNOVIRIS INNOVIRIS4:03:015:46 10.42552bx
1018.603XDEFILHARMONIE2 DEFILHARMONIE4:03:025:46 10.42553bx
1019.1440XP&G - MASTERS OF PROFUSED PROCTER & GAMBL4:03:035:46 10.42554bx
1020.1317XORANGE LIONS 4:03:065:46 10.41555bx
1021.738XFITHUIS TEAM 1 FITHUIS BVBA4:03:105:46 10.41556bx
1022.336FRESC EXCELL LADIES RESC4:03:115:46 10.4121cf
1023.813XISK ISK BIOSCIENCES4:03:155:46 10.41557bx
1024.1335SF RUNNERS 4:03:175:46 10.41190bm
1025.772XHANSEA 4 HANSEA4:03:245:47 10.40558bx
1026.913XNUTRICIA 2 NUTRICIA4:03:275:47 10.40559bx
1027.1360XGARAGE2 COLRUYT GROUP4:03:285:47 10.40560bx
1028.1496XELECTRABEL 4 ELECTRABEL GDF 4:03:295:47 10.40561bx
1029.1132XFACE2FACE BNP PARIBAS FOR4:03:295:47 10.40562bx
1030.1388XSPF ENV FLYING TEAM SPF SANTÉ PUBLI4:03:305:47 10.40563bx
1031.1447XP&G - PACKDEV1 PROCTER & GAMBL4:03:305:47 10.40564bx
1032.687XEU GIVE EUR HOPE - RUNNIN EU GIVE EUR HOP4:03:325:47 10.40565bx
1033.480XAS ADVENTURE FINANCE AS ADVENTURE4:03:335:47 10.40566bx
1034.1018SPMT-ARISTA - ON THE MOVE SPMT-ARISTA4:03:365:47 10.39191bm
1035.1442XP&G - MPD PGP PROCTER & GAMBL4:03:465:47 10.39567bx
1036.1598XBPOST - BFIN ACTISOC - BPOST4:03:495:47 10.38568bx
1037.845XGROUP FINANCE RUNNING TEA KBC GROUP4:03:505:47 10.38569bx
1038.1179XPIKA TONI ASTANA BNP PARIBAS FOR4:03:505:47 10.38570bx
1039.1647XBELGA IMAGE RUNNING TEAM BELGA NEWS AGEN4:03:535:47 10.38571bx
1040.802XDEVILS DO BRASIL ING4:03:535:47 10.38119rx
1041.1425XDELOITTE GMC DELOITTE4:03:545:47 10.38572bx
1042.779E-LEMON-ATORS HONEYWELL NV4:03:575:47 10.38192bm
1043.1521XCATERPILLAR TEAM 9 CATERPILLAR4:03:585:47 10.38573bx
1044.1001XSLABBAERT MC BVBA SLABBAERT MC BV4:04:005:47 10.38574bx
1045.143XBANDE À PAULUX II 4:04:035:48 10.37120rx
1046.309XMOMABECA 4:04:055:48 10.37121rx
1047.1688XTEAM JONATHAN 4:04:115:48 10.37575bx
1048.500XGIRLS TALK ATTENTIA4:04:125:48 10.37122rx
1049.574XCARREFOUR FINANCE CARREFOUR FINAN4:04:135:48 10.37576bx
1050.596CWS CWS-BOCO4:04:185:48 10.36193bm
DNF: abandon; DSQ: disqualifié; Vitesse en km/h
09/12/2022 - 06:41 - 1551 Entrées
ChronoRace - Electronic Timing SPRL
http://www.chronorace.be

Page 21 / 32  
Acerta Brussels Ekiden
CAP Brussels, 18/10/2014, BEL
Ekiden - Classement
42.195km 
Catégorie
PosNrNomAgeEquipeTempsTkmMoy.RangNomLocalité
1051.1384XAB-INBEV TRADE MARKETING AB-INBEV4:04:265:48 10.36577bx
1052.868XMAGIC 7 LUBRIZOL EUROPE4:04:265:48 10.36578bx
1053.784XHOPITAL ERASME 3 HÔPITAL ERASME4:04:275:48 10.36579bx
1054.412XWE RUN FOR KATY 4:04:315:48 10.35123rx
1055.822XJBC 2 JBC NV4:04:395:48 10.35580bx
1056.821XJBC 1 JBC NV4:04:395:48 10.35581bx
1057.1485XPROMAT-ETERNIT ETERNIT NV4:04:425:48 10.35582bx
1058.1444XP&G - OCTOPUSSY PROCTER & GAMBL4:04:435:48 10.35583bx
1059.509XOUTSIDERS AW EUROPE4:04:465:49 10.34584bx
1060.450RUNBELIEVABLE AG INSURANCE4:04:475:49 10.34194bm
1061.1262XBIG FOOT ELI LILLY4:04:505:49 10.34585bx
1062.629XEMERSON TEAM ONE EMERSON PROCESS4:04:545:49 10.34586bx
1063.686XEU GIVE EUR HOPE - RUNNIN EU GIVE EUR HOP4:04:555:49 10.34587bx
1064.949XPRAYON9 PRAYON4:04:595:49 10.33588bx
1065.877XMIELE STEAMERS MIELE4:05:025:49 10.33589bx
1066.1137XFINTRO BNP PARIBAS FOR4:05:035:49 10.33590bx
1067.915XOIP RUNNING TEAM OIP NV4:05:045:49 10.33591bx
1068.746XGE CAPITAL FLEET SERVICES GE CAPITAL FLEE4:05:045:49 10.33592bx
1069.1184PRIVATE BANKING BXL - EST BNP PARIBAS FOR4:05:055:49 10.33195bm
1070.1559XACERTA - LEGAL CONSULT ACERTA4:05:075:49 10.33593bx
1071.809XIPC TEAM 3 INTERNATIONAL P4:05:085:49 10.33594bx
1072.926XTHE ELECTRICALS P&V ELEKTROTECH4:05:105:49 10.33595bx
1073.1638XTRIPLE A TEAM AALST/NINOV ING4:05:115:49 10.33596bx
1074.1193XRUN2FAST BNP PARIBAS FOR4:05:125:49 10.33597bx
1075.963XTEAM 3DXCITE_02 REALTIME TECHNO4:05:185:49 10.32598bx
1076.787XHOPITAL ERASME 6 HÔPITAL ERASME4:05:185:49 10.32599bx
1077.1095XJUST FOR FUN WE RUN! ¨BNP PARIBAS FO4:05:245:49 10.32600bx
1078.666XEU GIVE EUR HOPE - LA CRE EU GIVE EUR HOP4:05:275:50 10.31601bx
1079.247XHET HINKELPAD 4:05:305:50 10.31124rx
1080.765XGOODMAN TEAM 1 GOODMAN MANAGEM4:05:455:50 10.30602bx
1081.1569XACERTA - THE CHICKEN RUN ACERTA4:05:495:50 10.30603bx
1082.768XGOODMAN TEAM 4 GOODMAN MANAGEM4:05:505:50 10.30604bx
1083.945XPPD2 PPD4:05:515:50 10.30605bx
1084.1313MAVERICKS 4:05:525:50 10.30196bm
1085.1682XVZW LIMITLESS 4:05:535:50 10.30125rx
1086.680XEU GIVE EUR HOPE - RABBIT EU GIVE EUR HOP4:05:595:50 10.29606bx
1087.751XGILLION TEAM 3/3 GILLION CONSTRU4:06:015:50 10.29607bx
1088.1625XBEOBANK TEAM 5 BEOBANK4:06:025:50 10.29608bx
1089.1016XSPMT-ARISTA - ANTWERPEN SPMT-ARISTA4:06:095:51 10.29609bx
1090.1039X42 SHADES OF PAIN THROMBOGENICS N4:06:125:51 10.28610bx
1091.610XDERBIGUM TEAM 2 DERBIGUM4:06:145:51 10.28611bx
1092.1526XEY AUDIT TEAM EY4:06:165:51 10.28612bx
1093.313XNIET PLOOIEN ACES WICHELEN4:06:175:51 10.2839cx
1094.1291XING FAST LIONS 4:06:185:51 10.28613bx
1095.1514XCATERPILLAR TEAM 2 CATERPILLAR4:06:225:51 10.28614bx
1096.693XEU GIVE EUR HOPE - SLOW M EU GIVE EUR HOP4:06:225:51 10.28615bx
1097.1434XP&G - DIVERSITY PROCTER & GAMBL4:06:245:51 10.28616bx
1098.1167LOCAL CUSTOMERS RUNNERS BNP PARIBAS FOR4:06:335:51 10.27197bm
1099.1113XCCB BRUSSEL TEAM 3 BNP PARIBAS FOR4:06:375:51 10.27617bx
1100.1082WTCB-CSTC WTCB-CSTC4:06:385:51 10.27198bm
DNF: abandon; DSQ: disqualifié; Vitesse en km/h
09/12/2022 - 06:41 - 1551 Entrées
ChronoRace - Electronic Timing SPRL
http://www.chronorace.be

Page 22 / 32  
Acerta Brussels Ekiden
CAP Brussels, 18/10/2014, BEL
Ekiden - Classement
42.195km 
Catégorie
PosNrNomAgeEquipeTempsTkmMoy.RangNomLocalité
1101.1315XONE TEAM 4:06:455:51 10.26618bx
1102.225XEMILIA'S RUNNERS 4:06:485:51 10.26126rx
1103.451XWONEN-VLAANDEREN 1 AGENTSCHAP WONE4:06:505:51 10.26619bx
1104.807XIPC TEAM 1 INTERNATIONAL P4:06:515:51 10.26620bx
1105.1097ACLVB -CGSLB BNP PARIBAS FOR4:06:515:52 10.26199bm
1106.1004XSMALS SMALS4:06:525:52 10.26621bx
1107.653XEU GIVE EUR HOPE - EMPL ' EU GIVE EUR HOP4:06:555:52 10.25622bx
1108.482XASCO DESIGN OFFICE ASCO INDUSTRIES4:07:005:52 10.25623bx
1109.488XASCO SUPPLY CHAIN ASCO INDUSTRIES4:07:025:52 10.25624bx
1110.1153XJAMES GENT BNP PARIBAS FOR4:07:025:52 10.25625bx
1111.1076XTEAM RAVENSTEIN VLUHR4:07:115:52 10.24626bx
1112.905XNLMK CLABECQ 2 NLMK CLABECQ4:07:145:52 10.24627bx
1113.891XBALTA 5 N.V. BALTA INDU4:07:185:52 10.24628bx
1114.837XGOLDEN NUGGETS KBC BANK4:07:195:52 10.24629bx
1115.1238XWEST-VLAAMSE JOGGERS BNP PARIBAS FOR4:07:265:52 10.23630bx
1116.1460XUCB CLUB - LOS BRAINOS UCB PHARMA4:07:265:52 10.23631bx
1117.1142XFORTIS KAMPENHOUT BNP PARIBAS FOR4:07:305:52 10.23632bx
1118.308XMILK & BEER 4:07:315:52 10.23127rx
1119.457XAKSES AKSES FINANCIAL4:07:315:52 10.23633bx
1120.571XCANDRIAM 4 CANDRIAM BELGIU4:07:345:53 10.23634bx
1121.1145GO GO DUVEL BNP PARIBAS FOR4:07:365:53 10.23200bm
1122.1655XE-XSTREAM ENGINEERING TEA E-XSTREAM ENGIN4:07:395:53 10.22635bx
1123.676EU GIVE EUR HOPE - OIB I EU GIVE EUR HOP4:07:395:53 10.22201bm
1124.590XCREATIEKE CREATIEKE4:07:415:53 10.22636bx
1125.163XBRANDWEER BOOM 2 4:07:465:53 10.22128rx
1126.473XAPB TEAM 1 APB4:07:485:53 10.22637bx
1127.1221THE GREEN DEVILS BNP PARIBAS FOR4:07:525:53 10.21202bm
1128.244XHANDBOOGHOF 2 4:08:005:53 10.21129rx
1129.818XQS-7TH-FLOOR-ON-THE-RUN JANSSEN PHARMAC4:08:005:53 10.21638bx
1130.1100XBAZINGA! BNP PARIBAS FOR4:08:035:53 10.21639bx
1131.808XIPC TEAM 2 INTERNATIONAL P4:08:055:53 10.21640bx
1132.1162XLES COOLOS BNP PARIBAS FOR4:08:055:53 10.21641bx
1133.1155XJUST IN TIME & CO BNP PARIBAS FOR4:08:105:53 10.20642bx
1134.1304XINTOUCHABLES 4:08:105:53 10.20643bx
1135.419XZESTER 4:08:155:54 10.20130rx
1136.731FORTINET - DIMENSION DATA EXCLUSIVE NETWO4:08:185:54 10.20203bm
1137.395XUTEPILS 4:08:185:54 10.20131rx
1138.741XFLEET LOGISTICS FLEET LOGISTICS4:08:195:54 10.20644bx
1139.1579XAVEVE HOGS AVEVE4:08:195:54 10.20645bx
1140.396XUTESLIP 4:08:235:54 10.19132rx
1141.1344XTHE LEGAL SENTINELS 4:08:245:54 10.19646bx
1142.1134XFACTORING ON THE RUN! BNP PARIBAS FOR4:08:245:54 10.19647bx
1143.1003XSMALS SMALS4:08:265:54 10.19648bx
1144.1290ING FAB TEAM 4:08:315:54 10.19204bm
1145.635XEU GIVE EUR HOPE - ALL CO EU GIVE EUR HOP4:08:335:54 10.19649bx
1146.750XGILLION TEAM 2/3 GILLION CONSTRU4:08:345:54 10.19650bx
1147.1289XING BEERTJES 4:08:385:54 10.18651bx
1148.1276XCOOL RUNNINGS 2 4:08:385:54 10.18652bx
1149.245XHELDERGEMSE RUNNERS 4:08:415:54 10.18133rx
1150.1092XZOETIS LLN 3 ZOETIS4:08:415:54 10.18653bx
DNF: abandon; DSQ: disqualifié; Vitesse en km/h
09/12/2022 - 06:41 - 1551 Entrées
ChronoRace - Electronic Timing SPRL
http://www.chronorace.be

Page 23 / 32  
Acerta Brussels Ekiden
CAP Brussels, 18/10/2014, BEL
Ekiden - Classement
42.195km 
Catégorie
PosNrNomAgeEquipeTempsTkmMoy.RangNomLocalité
1151.477XZONDER WEERGA ARCHIVISION NV4:08:425:54 10.18654bx
1152.1479XETERNIT 2 ETERNIT NV4:08:485:54 10.18655bx
1153.729XFORTINET - DIMENSION DATA EXCLUSIVE NETWO4:08:495:54 10.17656bx
1154.1538XEY TAX TEAM BXL 2 EY4:08:545:54 10.17657bx
1155.909XGET IT EKI-DONE NUMECA INTERNAT4:08:595:55 10.17658bx
1156.549XVAN HOVE FREDDY EN ZOON BOUW.PUNT VAN D4:08:595:55 10.17659bx
1157.545OVB BOUW.PUNT OVB4:09:005:55 10.17205bm
1158.708XEU GIVE EUR HOPE : ESF CO EU GIVE EUR HOP4:09:005:55 10.17660bx
1159.1129XENGINEERS ON THE RUN BNP PARIBAS FOR4:09:025:55 10.17661bx
1160.1488FUNIVERSITEIT GENT 2 UNIVERSITEIT GE4:09:055:55 10.167bf
1161.1189XRISTA’S BNP PARIBAS FOR4:09:085:55 10.16662bx
1162.1375XAB INBEV GMTS 2013 4:09:115:55 10.161x
1163.592XTHE NANO'S CRISTAL THERAPE4:09:165:55 10.16663bx
1164.1060XFAST FORWARD! UNISYS BELGIUM4:09:255:55 10.15664bx
1165.709FEU GIVE EUR HOPE : ESTONI EU GIVE EUR HOP4:09:375:55 10.148bf
1166.174XCLARIS 4:09:425:56 10.14134rx
1167.1466XENSEMBLE EN CHEMIN 11 4:09:445:56 10.14135rx
1168.1467XENSEMBLE EN CHEMIN 12 4:09:455:56 10.14136rx
1169.1465XENSEMBLE EN CHEMIN 10 4:09:455:56 10.14137rx
1170.542XBOUW.PUNT DE WITTE BOUW.PUNT DE WI4:09:495:56 10.13665bx
1171.1057SCRIPT TEAM UNION NATIONALE4:09:545:56 10.13206bm
1172.593XDELICIOUS CULINOR4:09:585:56 10.13666bx
1173.749XGILLION TEAM 1/3 GILLION CONSTRU4:09:585:56 10.13667bx
1174.1008SOMATI FIE SOMATI FIE4:09:585:56 10.13207bm
1175.1263XRUN4FUN ELI LILLY4:10:005:56 10.13668bx
1176.602XDEFILHARMONIE1 DEFILHARMONIE4:10:045:56 10.12669bx
1177.1298XING MARKETING - PRICING T 4:10:055:56 10.12670bx
1178.251XHULPGEVANGENIS LEUVEN 4:10:065:56 10.12138rx
1179.319XOKKE ELZENHOF 4:10:065:56 10.12139rx
1180.713XEU GIVE EUR HOPE : REGIO EU GIVE EUR HOP4:10:075:56 10.12671bx
1181.856FSUPERWOMEN LABO THERAPEUTI4:10:085:56 10.129bf
1182.1217XTHE EASY RUNNERS BNP PARIBAS FOR4:10:095:56 10.12672bx
1183.552DREAMTEAM 2 BOUWPUNT DECKER4:10:115:56 10.12208bm
1184.1246XSIEMENS 100% LEGAL SIEMENS4:10:125:56 10.12673bx
1185.1630XHOEGAARDEN ROSÉ AB INBEV4:10:125:56 10.12674bx
1186.1328XROADRUNNERS 4:10:175:56 10.12675bx
1187.1435XP&G - DRIVERS OF TOMORROW PROCTER & GAMBL4:10:215:56 10.11676bx
1188.1123XDIVERSITEAM BNP PARIBAS FOR4:10:225:57 10.11677bx
1189.860XLAR RUNNING TEAM III LAR4:10:265:57 10.11678bx
1190.1565XACERTA - RUN FOR SERVICE ACERTA4:10:265:57 10.11679bx
1191.386XTIJMEN 4:10:365:57 10.10140rx
1192.814XIWT-TEAM1 IWT4:10:455:57 10.10680bx
1193.288XLES SOUS-DOUÉS I 4:10:505:57 10.09141rx
1194.1062XMASSIS 1 UZ GENT4:10:505:57 10.09681bx
1195.1275XCOOL RUNNINGS 1 4:10:545:57 10.09682bx
1196.575XCELSIS RAPID RUNNING TEAM CELSIS INTERNAT4:10:555:57 10.09683bx
1197.1654XE-XSTREAM ENGINEERING TEA E-XSTREAM ENGIN4:10:555:57 10.09684bx
1198.1487XUNIVERSITEIT GENT 1 UNIVERSITEIT GE4:10:565:57 10.09685bx
1199.1627FENVISAT KUNTMAAN NV4:10:585:57 10.0910bf
1200.1629XTHE LAB RUNNERS 4:11:025:57 10.09686bx
DNF: abandon; DSQ: disqualifié; Vitesse en km/h
09/12/2022 - 06:41 - 1551 Entrées
ChronoRace - Electronic Timing SPRL
http://www.chronorace.be

Page 24 / 32  
Acerta Brussels Ekiden
CAP Brussels, 18/10/2014, BEL
Ekiden - Classement
42.195km 
Catégorie
PosNrNomAgeEquipeTempsTkmMoy.RangNomLocalité
1201.1110XBOO ON THE RUN (FOR FUN) BNP PARIBAS FOR4:11:035:57 10.09687bx
1202.797XIKEA WAY IKEA BELGIUM NV4:11:045:57 10.08688bx
1203.1411PLUS EST EN VOUS DVV4:11:055:58 10.08209bm
1204.463XALPROTEAM ALPRO4:11:065:58 10.08689bx
1205.898XTEAM 1 NEXANS BENELUX NEXANS BENELUX4:11:075:58 10.08690bx
1206.341XRIP BUITEN ADEM ACP4:11:215:58 10.0740cx
1207.554XBOUWPUNT JORISSEN BOUWPUNT JORISS4:11:225:58 10.07691bx
1208.1151XI-WAY TEAM BNP PARIBAS FOR4:11:295:58 10.07692bx
1209.205XDE SCHOETERKES 4:11:305:58 10.07142rx
1210.1117XCOMMERCIAL BANKING MANAGE BNP PARIBAS FOR4:11:355:58 10.06693bx
1211.831XKBC BLIEK KBC4:11:395:58 10.06694bx
1212.1150XHOME RUN BNP PARIBAS FOR4:11:405:58 10.06695bx
1213.1156XKANTORENGROEP TIELT BNP PARIBAS FOR4:11:455:58 10.06696bx
1214.932TECCOMFORFUN PARTENA BUSINES4:11:465:58 10.06210bm
1215.1622XBEOBANK TEAM 2 BEOBANK4:11:515:59 10.05697bx
1216.577XRISING RUN I CERTIS EUROPE4:11:525:59 10.05698bx
1217.1475XENSEMBLE EN CHEMIN 8 4:11:575:59 10.05143rx
1218.739XFITHUIS TEAM 2 FITHUIS BVBA4:11:585:59 10.05699bx
1219.535XBOTHA BOCKAERT & THIE4:11:595:59 10.05700bx
1220.867XDE ZES LESTE LUBRIZOL EUROPE4:12:025:59 10.05701bx
1221.1121FDE RODE LOPERS BNP PARIBAS FOR4:12:065:59 10.0411bf
1222.1209XTEAM CASC 1 BNP PARIBAS FOR4:12:065:59 10.04702bx
1223.991XSECUREX II SECUREX4:12:105:59 10.04703bx
1224.1154XJOGGINVEST BNP PARIBAS FOR4:12:125:59 10.04704bx
1225.1511XTHE BULLETS RECORD BANK4:12:185:59 10.03705bx
1226.1198XRUNNING STARS BNP PARIBAS FOR4:12:275:59 10.03706bx
1227.1372XSYMÉTA2 COLRUYT GROUP4:12:316:00 10.03707bx
1228.1235XWEALTH MANAGEMENT 2 BNP PARIBAS FOR4:12:316:00 10.03708bx
1229.207XDE TRIRAMISU'S 4:12:356:00 10.02144rx
1230.1537XEY TAX TEAM BXL 1 EY4:12:376:00 10.02709bx
1231.429XAS ADVENTURE SALES TEAM A.S. ADVENTURE4:12:416:00 10.02710bx
1232.1187XPUBLIC ON THE RUN BNP PARIBAS FOR4:12:436:00 10.02711bx
1233.368XTALENTENSCHOOL TURNHOUT 2 4:12:456:00 10.02145rx
1234.1180XPLAIN VANILLA BNP PARIBAS FOR4:12:456:00 10.02712bx
1235.1545XMOBISTARLETS MOBISTAR4:12:526:00 10.01713bx
1236.799XINFRABEL INFRABEL4:12:536:00 10.01714bx
1237.505XBELJAFRA HEROES AW EUROPE4:12:586:00 10.01715bx
1238.1230XTHE VISCIOUS AND DELICIOU BNP PARIBAS FOR4:12:586:00 10.01716bx
1239.517XBTB 1 BAKER TILLY BEL4:13:026:00 10.01717bx
1240.1432XP&G - BUY ME ONCE PROCTER & GAMBL4:13:076:00 10.00718bx
1241.1660XKBC WHITE PEARLS KBC GROEP NV4:13:086:00 10.00719bx
1242.1172XMIC BNP PARIBAS FOR4:13:116:01 10.00720bx
1243.903XTO DISCUSS HR EN FD NIEUWE MEDIA GR4:13:166:01 10.00721bx
1244.617X"WHO IS ANDREW DIXON ?" DIXON & COMPANY4:13:286:01 9.99722bx
1245.277XLES DILI'S ET COMPAGNIE 4:13:336:01 9.99146rx
1246.1445XP&G - PACK DEV 2 PROCTER & GAMBL4:13:346:01 9.98723bx
1247.1138XFIT & PROPER BNP PARIBAS FOR4:13:356:01 9.98724bx
1248.560XBSB BSB4:13:376:01 9.98725bx
1249.646FEU GIVE EUR HOPE - COMP H EU GIVE EUR HOP4:13:416:01 9.9812bf
1250.282XLES GAZELLES 4:13:456:01 9.98147rx
DNF: abandon; DSQ: disqualifié; Vitesse en km/h
09/12/2022 - 06:41 - 1551 Entrées
ChronoRace - Electronic Timing SPRL
http://www.chronorace.be

Page 25 / 32  
Acerta Brussels Ekiden
CAP Brussels, 18/10/2014, BEL
Ekiden - Classement
42.195km 
Catégorie
PosNrNomAgeEquipeTempsTkmMoy.RangNomLocalité
1251.1203XSKILLS TEAM BNP PARIBAS FOR4:13:496:01 9.97726bx
1252.1056XLATITUDE JEUNES UNION NATIONALE4:13:496:01 9.97727bx
1253.1674XVGD ANTWERPEN-BRUSSEL VGD GENT4:13:526:01 9.97728bx
1254.405XVINCE'S ANGELS 4:13:536:02 9.97148rx
1255.984XSAP LADIES RUN FOR FUN SAP BELGIUM4:13:546:02 9.97729bx
1256.1168XLOS FACILOS BNP PARIBAS FOR4:13:556:02 9.97730bx
1257.594GOOD FOR YOU CULINOR 24:13:586:02 9.97211bm
1258.1530XEY HC/HR BRUSSELS EY4:14:026:02 9.97731bx
1259.711XEU GIVE EUR HOPE : HURAGA EU GIVE EUR HOP4:14:076:02 9.96732bx
1260.1297FING MARKETING – LIONESSES 4:14:126:02 9.9613bf
1261.1267XTHE TURTLES OF AESOP ELI LILLY4:14:206:02 9.95733bx
1262.997XRUNNING TOWARDS SUCCES SELECT HR4:14:356:03 9.94734bx
1263.199XDE MAKKERS 4:14:396:03 9.94149rx
1264.912XNUTRICIA 1 NUTRICIA4:14:426:03 9.94735bx
1265.1269X6RUNNERS4ING-STOCKEL 4:14:446:03 9.94736bx
1266.169XCARROS DE FOGUEO III 4:14:506:03 9.94150rx
1267.1548XAB-RUNNING AB CONSULT4:14:506:03 9.93737bx
1268.1264XRUNNERS4LIFE ELI LILLY4:14:506:03 9.93738bx
1269.1665STEF RUNNERS STEF4:14:516:03 9.93212bm
1270.982XSANITECHNIEK SANITECHNIEK4:14:526:03 9.93739bx
1271.862LBT TWO LABO LBT - TESTING &4:14:546:03 9.93213bm
1272.1169XLUUPNEKIEMEE HALLE BNP BNP PARIBAS FOR4:15:086:03 9.92740bx
1273.1103FBC KEMPEN LADIES BNP PARIBAS FOR4:15:116:03 9.9214bf
1274.733FORTINET - EXCLUSIVE NETW EXCLUSIVE NETWO4:15:276:04 9.91214bm
1275.759XUNICEF-GSK VACCINES 8 GLAXOSMITHKLINE4:15:286:04 9.91741bx
1276.820XJSB RUNNING CLUB A JAPANESE SCHOOL4:15:316:04 9.91151rx
1277.438XACCENTURE TEAM 7 ACCENTURE NV4:15:336:04 9.91742bx
1278.300XMAKENKI 4:15:356:04 9.91152rx
1279.846XKDC KDC SPRL4:15:386:04 9.90743bx
1280.823XTHE GOLD RUNNING TEAM JEAN GOLDSCHMID4:15:426:04 9.90744bx
1281.1433XP&G - CLIC PROCTER & GAMBL4:15:556:04 9.89745bx
1282.1342XTHE GLAMOUROUS L&I'S 4:16:006:05 9.89746bx
1283.830XKBC 1 KBC4:16:056:05 9.89747bx
1284.1504XRECORD BANK HOOGVLIEGERS RECORD BANK4:16:056:05 9.89748bx
1285.957XDE PURNA PANTERS PURNA PHARMACEU4:16:076:05 9.89749bx
1286.1508RECORD'SIX RECORD BANK4:16:146:05 9.88215bm
1287.1541XRUNNING FOR SUCCES SELECT HR4:16:166:05 9.88750bx
1288.1232TURBO SNAILS BNP PARIBAS FOR4:16:186:05 9.88216bm
1289.996XSEGEC2 SEGEC4:16:186:05 9.88751bx
1290.536XTEAM BOERENBOND BOERENBOND4:16:246:05 9.87752bx
1291.113XAMARESH 4:16:256:05 9.87153rx
1292.992FSECUREX III SECUREX4:16:356:05 9.8715bf
1293.1302XING ZUDERPOORT KREDIETEN 4:16:366:05 9.87753bx
1294.1639XCOURS-TOUJOURS ELI LILLY4:16:376:05 9.87754bx
1295.111XALVA 2 ALVA4:16:376:05 9.8741cx
1296.1265XRUNNING WILD ELI LILLY4:16:386:05 9.87755bx
1297.648XEU GIVE EUR HOPE - DEVCO EU GIVE EUR HOP4:16:386:05 9.87756bx
1298.1197XRUNNING ROGERS BNP PARIBAS FOR4:16:566:06 9.85757bx
1299.1027XSRIB TEAM SRIB4:17:016:06 9.85758bx
1300.1461XUCB CLUB - LOS RAPIDOS UCB PHARMA4:17:036:06 9.85759bx
DNF: abandon; DSQ: disqualifié; Vitesse en km/h
09/12/2022 - 06:41 - 1551 Entrées
ChronoRace - Electronic Timing SPRL
http://www.chronorace.be

Page 26 / 32  
Acerta Brussels Ekiden
CAP Brussels, 18/10/2014, BEL
Ekiden - Classement
42.195km 
Catégorie
PosNrNomAgeEquipeTempsTkmMoy.RangNomLocalité
1301.1320XPB ZONE CENTRE « CEDRIC » 4:17:076:06 9.85760bx
1302.841XMAPLE LEAFS KBC BANK4:17:096:06 9.85761bx
1303.1448XP&G - SMO LADIES PROCTER & GAMBL4:17:126:06 9.84762bx
1304.1102XBC HALLE-VILVOORDE-AALST BNP PARIBAS FOR4:17:166:06 9.84763bx
1305.518XBTB 2 BAKER TILLY BEL4:17:366:07 9.83764bx
1306.1603XBPOST - RED HOT PM RUNNER ACTISOC - BPOST4:17:366:07 9.83765bx
1307.1119XDE ENZORUNNERS BNP PARIBAS FOR4:17:406:07 9.83766bx
1308.490XAZERATTI ASTRAZENECA4:17:456:07 9.82767bx
1309.805XINTEGRALE 2 INTEGRALE4:17:486:07 9.82768bx
1310.1195XRUNNERSHIGH BNP PARIBAS FOR4:17:556:07 9.82769bx
1311.226XENSEMBLE EN CHEMIN 7 4:18:116:08 9.81154rx
1312.151XBERRE 4:18:186:08 9.80155rx
1313.306XMERLIJN 4:18:246:08 9.80156rx
1314.292XLOGOS 4:18:246:08 9.80157rx
1315.1471XENSEMBLE EN CHEMIN 3 4:18:266:08 9.80158rx
1316.296XLUST FOR RUN 4:18:266:08 9.80159rx
1317.1464XENSEMBLE EN CHEMIN 1 4:18:286:08 9.80160rx
1318.332RCB 4 JAW DREAM TEAM RCB4:18:316:08 9.7945cm
1319.145B-DSK(JAUNE) 4:18:336:08 9.7946rm
1320.1470ENSEMBLE EN CHEMIN 2 4:18:346:08 9.7947rm
1321.281FLES FILLES FOREVER 4:18:376:08 9.796rf
1322.763XGODIVA DREAM TEAM GODIVA BELGIUM 4:18:426:08 9.79770bx
1323.1219XTHE FIT & THE BEAUTIFUL BNP PARIBAS FOR4:18:436:08 9.79771bx
1324.1284XDOUBLE PERSONAL TOUCH 4:18:476:08 9.78772bx
1325.1566FACERTA - SUPERSIX ACERTA4:18:546:09 9.7816bf
1326.1120XDE KOOLPUTTERS BNP PARIBAS FOR4:18:596:09 9.78773bx
1327.866XNINJAGO LEGO BELGIË NV4:18:596:09 9.78774bx
1328.1474XENSEMBLE EN CHEMIN 6 4:19:036:09 9.77161rx
1329.1143XGENK FOR PLATINA BNP PARIBAS FOR4:19:036:09 9.77775bx
1330.1247XSIEMENS ANIMA SANA SIEMENS4:19:066:09 9.77776bx
1331.1421XKNRUNNERS KUEHNE+NAGEL4:19:096:09 9.77777bx
1332.817XQA/QC GEEL JANSSEN PHARMAC4:19:106:09 9.77778bx
1333.1236XWEALTH MANAGEMENT 3 BNP PARIBAS FOR4:19:126:09 9.77779bx
1334.211XDE WILLIES VAN WALLY 4:19:136:09 9.77162rx
1335.406XVITA NINOVE VITA NINOVE4:19:166:09 9.7742cx
1336.1080XWAAK - TEAM 2 WAAK BW VZW4:19:176:09 9.76780bx
1337.792XHIPSTERS HP4:19:186:09 9.76781bx
1338.1409XJANNE DVV4:19:226:09 9.76782bx
1339.793XHP MAGDA HP4:19:266:09 9.76783bx
1340.1600XBPOST - DE FACTEUREKES ACTISOC - BPOST4:19:286:09 9.76784bx
1341.664XEU GIVE EUR HOPE - IP - P EU GIVE EUR HOP4:19:296:09 9.76785bx
1342.479TEAM BRUSSEL 1 ARNE VDB CONSUL4:19:376:10 9.75217bm
1343.962XTEAM 3DXCITE_01 REALTIME TECHNO4:19:376:10 9.75786bx
1344.682XEU GIVE EUR HOPE - REGIO EU GIVE EUR HOP4:19:376:10 9.75787bx
1345.985XSBGE-BMWB SBGE - BMWB4:19:376:10 9.75788bx
1346.1473XENSEMBLE EN CHEMIN 5 4:19:386:10 9.75163rx
1347.455XFINANCE AIG EUROPE LIMI4:19:396:10 9.75789bx
1348.692XEU GIVE EUR HOPE - SLOW A EU GIVE EUR HOP4:19:456:10 9.75790bx
1349.1534XEY PARTNERS' TEAM 1 EY4:19:526:10 9.74791bx
1350.1407XDVV VLH VERZEKERINGEN TEA DVV4:19:526:10 9.74792bx
DNF: abandon; DSQ: disqualifié; Vitesse en km/h
09/12/2022 - 06:41 - 1551 Entrées
ChronoRace - Electronic Timing SPRL
http://www.chronorace.be

Page 27 / 32  
Acerta Brussels Ekiden
CAP Brussels, 18/10/2014, BEL
Ekiden - Classement
42.195km 
Catégorie
PosNrNomAgeEquipeTempsTkmMoy.RangNomLocalité
1351.363XSPORTING BUIZINGEN 2 4:20:026:10 9.74164rx
1352.579XRISING RUN III CERTIS EUROPE4:20:046:10 9.73793bx
1353.1380XAB INBEV SALES OPS AB INBEV4:20:126:10 9.73794bx
1354.743XGAME MANIA RUNNERS GAME MANIA4:20:146:11 9.73795bx
1355.587FROYCO CONTINENTAL FOO4:20:146:11 9.7317bf
1356.573XCARRÉ TWO CARRÉ ASSOCIATE4:20:186:11 9.73796bx
1357.973XFENIX RUIMTE VLAANDER4:20:216:11 9.72797bx
1358.328XPHYSIO ESPERANCE CHC 4:20:286:11 9.72165rx
1359.1164XLES HURLU-BERLUS BNP PARIBAS FOR4:20:306:11 9.72798bx
1360.908XNOVO NORDISK NOVO NORDISK4:20:366:11 9.72799bx
1361.1090XZOETIS LLN 1 ZOETIS4:20:466:11 9.71800bx
1362.537FBONE1 BONE THERAPEUTI4:20:476:11 9.7118bf
1363.472XTHE ROOKIES ANDRE CELIS4:20:486:11 9.71801bx
1364.196XDE GROEP MINUS YANNICK/RE 4:20:516:11 9.71166rx
1365.651FEU GIVE EUR HOPE - EASME EU GIVE EUR HOP4:20:526:11 9.7119bf
1366.1637XDE FIREBALLS ING4:20:536:11 9.70802bx
1367.562BUREAU D'ETUDES SAVOIE 1 BUREAU D'ETUDES4:20:546:11 9.70218bm
1368.1296XING MARKETING - FAST TOES 4:21:016:12 9.70803bx
1369.440XA-TEAM ADECCO COORDINA4:21:036:12 9.70804bx
1370.873XMARSH 2 MARSH S.A.4:21:106:12 9.69805bx
1371.1214XTEAM MDP BNP PARIBAS FOR4:21:106:12 9.69806bx
1372.538XBONE2 BONE THERAPEUTI4:21:166:12 9.69807bx
1373.274FLEEUWERIK JEUGD 2 4:21:166:12 9.697rf
1374.730XFORTINET - DIMENSION DATA EXCLUSIVE NETWO4:21:196:12 9.69808bx
1375.929XPARTENA HDP LONELY SHOES PARTENA BUSINES4:21:236:12 9.69809bx
1376.836XGAËL'S ANGELS KBC BANK4:21:296:12 9.68810bx
1377.1280DE VEURNSE BOETELINGEN 4:21:306:12 9.68219bm
1378.1610XCCT - CM ACTISOC - BPOST4:21:336:12 9.68811bx
1379.1679XELECTRABEL 11 GDF SUEZ TOWER4:21:336:12 9.68812bx
1380.1242XYOUNG ADULTS RUNNING...(N BNP PARIBAS FOR4:21:346:12 9.68813bx
1381.1226XTHE MARATHON LOVERS BNP PARIBAS FOR4:21:346:12 9.68814bx
1382.101X2 CAMBEMBERTS/3 FRITES ET 4:21:426:13 9.67167rx
1383.1662XCHOCOMANIA THE TRILOGIE NATRA MALLE4:21:466:13 9.67815bx
1384.931FTEAMSPIRIT INSIDE PARTENA BUSINES4:21:556:13 9.6720bf
1385.1611XBPOST - TEAM 3 ACTISOC-BPOST4:22:016:13 9.66816bx
1386.283XLES INTOUCHABLES 4:22:036:13 9.66168rx
1387.1397XBELFIUS INSURANCE SCHADE DVV4:22:166:13 9.65817bx
1388.1282XDON'T HURRY, BE HAPPY 4:22:276:14 9.65818bx
1389.492FRAZERS ASTRAZENECA4:22:426:14 9.6421bf
1390.920XONP ATTRIBUTION ONP4:22:456:14 9.64819bx
1391.578XRISING RUN II CERTIS EUROPE4:22:556:14 9.63820bx
1392.524YES WE RUN BANQUE NATIONAL4:23:066:15 9.62220bm
1393.843XKBC 2 KBC BANK NV4:23:156:15 9.62821bx
1394.988XSECA BENELUX SECA BENELUX SP4:23:176:15 9.62822bx
1395.214FDESPERATE RUNNING WIVES 4:23:216:15 9.618rf
1396.1554XACERTA - DE DOORZETTERS ACERTA4:23:226:15 9.61823bx
1397.773HANSEA 1 HANSEA NV4:23:296:15 9.61221bm
1398.514XAXA JF AXA BELGIUM4:23:496:16 9.60824bx
1399.1240XX-HR-X BNP PARIBAS FOR4:23:516:16 9.60825bx
1400.1288XING - SINGAPORE SLING 4:24:046:16 9.59826bx
DNF: abandon; DSQ: disqualifié; Vitesse en km/h
09/12/2022 - 06:41 - 1551 Entrées
ChronoRace - Electronic Timing SPRL
http://www.chronorace.be

Page 28 / 32  
Acerta Brussels Ekiden
CAP Brussels, 18/10/2014, BEL
Ekiden - Classement
42.195km 
Catégorie
PosNrNomAgeEquipeTempsTkmMoy.RangNomLocalité
1401.1165XLES ROLIN IRON LADIES BNP PARIBAS FOR4:24:056:16 9.59827bx
1402.1363XIN CONTACT1 COLRUYT GROUP4:24:106:16 9.58828bx
1403.1114XCCB GENT BNP PARIBAS FOR4:24:316:17 9.57829bx
1404.1292ING FLASH DOP 4:24:426:17 9.56222bm
1405.520XTHE BALOISE RUNNERS BALOISE INSURAN4:24:436:17 9.56830bx
1406.456FWOMEN POWER AIG EUROPE LIMI4:24:466:17 9.5622bf
1407.539XBONE3 BONE THERAPEUTI4:24:466:17 9.56831bx
1408.1416XKIRARI KUNSTMAAN NV4:24:536:17 9.56832bx
1409.1158XKING'S (WO)MEN BNP PARIBAS FOR4:24:596:17 9.55833bx
1410.470THE A-TEAM ANDRE CELIS4:25:056:17 9.55223bm
1411.359XSPF ENV FLYING TEAM 4:25:096:18 9.55834bx
1412.1635XCOCO COLRUYT GROUP S4:25:166:18 9.54835bx
1413.1378XSTELLA(R) RUNNING! 4:25:326:18 9.53169rx
1414.201XDE OVERLOPERS 4:25:356:18 9.53170rx
1415.1632XLEUVEN 1366 AB-INBEV4:25:466:18 9.53836bx
1416.1243XZEITEL OILJST BNP PARIBAS FOR4:25:516:19 9.52837bx
1417.719FEU GIVE EUR HOPE 'VENTO F EU GIVE EUR HOP4:26:056:19 9.5223bf
1418.1423XDELOITTE ACS DELOITTE4:26:056:19 9.51838bx
1419.636XEU GIVE EUR HOPE - AMANDA EU GIVE EUR HOP4:26:166:19 9.51839bx
1420.1664FSPACE GIRLS SPACE APPLICATI4:26:186:19 9.5124bf
1421.499XATTENTIA TAKE CARE ATTENTIA4:26:236:19 9.50171rx
1422.498XATTENTIA NO ACCESS ATTENTIA4:26:246:19 9.50172rx
1423.1204XSOCIALICIOUS BNP PARIBAS FOR4:26:266:19 9.50840bx
1424.162XBRANDWEER BOOM 1 4:26:356:20 9.50173rx
1425.879XTHE MIELE SCOUTS MIELE4:26:446:20 9.49841bx
1426.491XJUSK’OBOUT ASTRAZENECA4:27:066:20 9.48842bx
1427.1327XREYERS TEAM 4:27:086:20 9.48843bx
1428.1171XMC STARTS TO RUN BNP PARIBAS FOR4:27:276:21 9.47844bx
1429.1469XENSEMBLE EN CHEMIN 14 4:27:286:21 9.47174rx
1430.1017XSPMT-ARISTA - HARES AND T SPMT-ARISTA4:27:296:21 9.46845bx
1431.301XMARTINEZ & CO 4:27:326:21 9.46175rx
1432.390XTOUT SHUSS EXCELSIOR BRUXE4:27:366:21 9.4643cx
1433.478AREXO AREXO CONSULTIN4:27:386:21 9.46224bm
1434.870XMOVE4MI MANAGEMENT INFO4:27:506:21 9.45846bx
1435.852KRINKELS KRINKELS4:27:506:21 9.45225bm
1436.1206XSTOCKEL BNP PARIBAS FOR4:27:516:21 9.45847bx
1437.1404FDVV ROBBERECHTS DAMESTEAM DVV4:27:556:21 9.4525bf
1438.1452XUCB CLUB - EQS UCB PHARMA4:27:566:21 9.45848bx
1439.671XEU GIVE EUR HOPE - LOG EU EU GIVE EUR HOP4:27:596:22 9.45849bx
1440.1558XACERTA - HAPPY FEET ACERTA4:28:026:22 9.45850bx
1441.504XAWTCE RUNNING TEAM 1 AW EUROPE4:28:086:22 9.44851bx
1442.471THE MUPPETS ANDRE CELIS4:28:246:22 9.43226bm
1443.1293XING GET-UP-AND-GO 4:28:266:22 9.43852bx
1444.1430XDELOITTE VTR DELOITTE4:28:286:22 9.43853bx
1445.497XATTENTIA NEW KNIFES ATTENTIA4:28:346:22 9.43176rx
1446.761XGLOBETRADE GLOBETRADE DELU4:28:506:23 9.42854bx
1447.1457FUCB CLUB - LADIES ON THE UCB PHARMA4:28:546:23 9.4226bf
1448.1367XSPAR COLRUYT GROUP4:28:546:23 9.42855bx
1449.345XRUN4FUN 4:29:186:23 9.40177rx
1450.1415XARTEMIS KUNSTMAAN NV4:29:186:23 9.40856bx
DNF: abandon; DSQ: disqualifié; Vitesse en km/h
09/12/2022 - 06:41 - 1551 Entrées
ChronoRace - Electronic Timing SPRL
http://www.chronorace.be

Page 29 / 32  
Acerta Brussels Ekiden
CAP Brussels, 18/10/2014, BEL
Ekiden - Classement
42.195km 
Catégorie
PosNrNomAgeEquipeTempsTkmMoy.RangNomLocalité
1451.1599XBPOST - BPOSITIF ACTISOC - BPOST4:29:266:24 9.40857bx
1452.1239XWINCKI’S BNP PARIBAS FOR4:29:286:24 9.40858bx
1453.598XDE BUYSER LOOPTEAM DE BUYSER J&G4:29:336:24 9.39859bx
1454.874XMARSH 3 MARSH S.A.4:30:056:25 9.37860bx
1455.726XTHE PERIODICAL RUNNERS EUROPEAN MAGAZI4:30:496:26 9.35861bx
1456.878XSAS STRIKEFORCE MIELE4:30:566:26 9.34862bx
1457.1362XGARAGE4 COLRUYT GROUP4:31:176:26 9.33863bx
1458.744XGC FEET ON FIRE GC EUROPE N.V.4:31:186:26 9.33864bx
1459.702XEU GIVE EUR HOPE - THE PO EU GIVE EUR HOP4:31:236:26 9.33865bx
1460.995XSEGEC1 SEGEC4:31:396:27 9.32866bx
1461.1215XTHE 8-TEAM BNP PARIBAS FOR4:31:426:27 9.32867bx
1462.1098XADM SAP HR SSC BNP PARIBAS FOR4:31:486:27 9.32868bx
1463.474XAPB TEAM 2 APB4:31:546:27 9.31869bx
1464.1031XSTIBBE TEAM LOMBAERT STIBBE4:32:136:28 9.30870bx
1465.989XSECUREX 4 SECUREX4:32:426:28 9.28871bx
1466.1311XLES PROS DU CENTRE 4:32:456:28 9.28872bx
1467.1175XPB DEVILS BNP PARIBAS FOR4:32:456:28 9.28873bx
1468.618XDS SMITH - DS SMITH4:32:516:28 9.28874bx
1469.974XRUN4FUN WEMMEL II RUN44:32:546:29 9.28178rx
1470.1422XKNSPEEDUP KUEHNE+NAGEL4:33:186:29 9.26875bx
1471.381XTHE JAK'S 4:33:226:29 9.26179rx
1472.563XTHE ROYAL BURGER RUNNING BURGER LOGISTIC4:33:276:29 9.26876bx
1473.755XUNICEF-GSK VACCINES 7 GLAXOSMITHKLINE4:34:176:31 9.23877bx
1474.235XFUERZA 4:34:256:31 9.23180rx
1475.1237XWEALTH MANAGEMENT 4 BNP PARIBAS FOR4:34:256:31 9.23878bx
1476.272XLARS 4:34:386:31 9.22181rx
1477.740XFITHUIS TEAM 3 FITHUIS BVBA4:34:496:31 9.21879bx
1478.392FTROT IN NET 4:34:536:31 9.219rf
1479.350XSAG & CO 4:35:146:32 9.20182rx
1480.1234XWEALTH MANAGEMENT 1 BNP PARIBAS FOR4:35:266:32 9.19880bx
1481.1083XDUCKY RULES X2O4:35:266:32 9.19881bx
1482.632XEU GIVE EUR HOPE - CAB PR EU GIVE EUR HOP4:36:136:33 9.17882bx
1483.824XTHE EXPENDABLES JERIKO4:36:136:33 9.17883bx
1484.1322XPERSONAL TOUCH 4:36:156:33 9.16884bx
1485.1462XUCB CLUB - TURBO SNAILS UCB PHARMA4:36:166:33 9.16885bx
1486.209XDE VEDETTEN 4:36:386:34 9.15183rx
1487.115XANONYMOUS 4:36:506:34 9.15184rx
1488.1160FLADIES TAKE THE RISK BNP PARIBAS FOR4:37:026:34 9.1427bf
1489.1032XSTRUKTUURTEAM STRUKTUUR4:38:096:36 9.10886bx
1490.1366FRODE TEL COLRUYT GROUP4:38:156:36 9.1028bf
1491.1373SYMÉTA3 COLRUYT GROUP4:38:486:37 9.08227bm
1492.1619XTEAM SPIRIT ALCON NV4:38:556:37 9.08887bx
1493.460XALLIANZ HR TEAM ALLIANZ BENELUX4:39:156:38 9.07888bx
1494.1552XACERTA - BIJNA LOS OP KOP ACERTA4:39:246:38 9.06889bx
1495.1414XYORI DVV4:39:426:38 9.05890bx
1496.1196XRUNNING IN PROCESS BNP PARIBAS FOR4:40:256:39 9.03891bx
1497.252FIBGEBIM AUT1 4:40:376:40 9.0210rf
1498.253XIBGEBIM AUT2 4:40:376:40 9.02185rx
1499.158XBRABO BRABO AC4:40:566:40 9.0144cx
1500.1124XDOUDOU AND THE LADIES BNP PARIBAS FOR4:41:326:41 8.99892bx
DNF: abandon; DSQ: disqualifié; Vitesse en km/h
09/12/2022 - 06:41 - 1551 Entrées
ChronoRace - Electronic Timing SPRL
http://www.chronorace.be

Page 30 / 32  
Acerta Brussels Ekiden
CAP Brussels, 18/10/2014, BEL
Ekiden - Classement
42.195km 
Catégorie
PosNrNomAgeEquipeTempsTkmMoy.RangNomLocalité
1501.1684SOS CHANTEVENT 4:41:426:41 8.9948rm
1502.213XDELGIDEPRINCE 4:41:446:41 8.99186rx
1503.1049XTRIANVAL TRIANVAL VZW4:41:486:41 8.98893bx
1504.1556XACERTA - FAST & FABULOUS ACERTA4:41:516:41 8.98894bx
1505.1524XEY AUDIT ANTWERP 2 EY4:42:106:42 8.97895bx
1506.572XCARRÉ ONE CARRÉ ASSOCIATE4:43:026:43 8.95896bx
1507.1395XAVKA SUPER TEAM 3 DVV4:43:486:44 8.92897bx
1508.685XEU GIVE EUR HOPE - RUN CA EU GIVE EUR HOP4:44:016:44 8.91898bx
1509.1285XDUVELINGERS 4:45:036:46 8.88899bx
1510.752XUNICEF_GSK VACCINES 3 GLAXOSMITHKLINE4:45:406:47 8.86900bx
1511.673XEU GIVE EUR HOPE - MALTA EU GIVE EUR HOP4:45:456:47 8.86901bx
1512.1028XSRIB TEAM 2 SRIB4:46:086:47 8.85902bx
1513.1353XCOLLISHOP COLRUYT GROUP4:46:576:49 8.82903bx
1514.1010XSOMATI FIE SOMATI FIE4:47:076:49 8.82904bx
1515.1542XTHE ROAD RUNNERS SELECT HR4:47:346:49 8.80905bx
1516.979XCLAVIE SA CLAVIE4:47:596:50 8.79906bx
1517.275XLES CHERITAS 4:49:376:52 8.74187rx
1518.674XEU GIVE EUR HOPE - MOST ( EU GIVE EUR HOP4:58:467:05 8.47907bx
1519.323XOONA 5:22:557:40 7.84188rx
1520.291XLOCAS-MOTIVE 5:26:427:45 7.75189rx
DSQ262XJOGGANS DYNAMITE 2:48:09rx
DSQ297XMACARRONES CON CHORIZO 2:57:27rx
DSQ1683XEU – GIVE EUR HOPE – TEAM X3:17:49bx
DSQ1273XBDCENTER DREAM TEAM 2 3:35:12bx
DSQ502RESULTS REALIZED AVANADE BELGIUM3:35:59bm
DSQ1052XDE RODE LOPERS UNION NATIONALE3:47:10bx
DSQ1072XVBOFEB2 VBO FEB3:47:31bx
DSQ585XCOMPUFIT COMPUFIT3:49:35bx
DSQ1058XTHE FLYING RUNNERS UNION NATIONALE3:55:41bx
DSQ1503XRECORD BANK HOOGVLIEGERS RECORD BANK4:06:39bx
DSQ638XEU GIVE EUR HOPE - CAB PR EU GIVE EUR HOP4:07:31bx
DSQ1309XLES ORANGES DYNAMIQUES 4:11:14bx
DSQ561FBES2 BUREAU D'ETUDES4:11:33bf
DSQ1135XFACTORING SALES TEAM BNP PARIBAS FOR4:11:46bx
DSQ1176XPBC BRUSSELS NORTH BNP PARIBAS FOR4:12:02bx
DSQ521NBB CS TEAM BANQUE NATIONAL4:13:33bm
DSQ1468XENSEMBLE EN CHEMIN 13 4:25:24rx
DNF434XACCENTURE TEAM 3 ACCENTURE NVbx
DNF966XAUSTRIAN PERMANENT REPRES REPRESENTATION rx
DNF1118XDAVID ANGELS BNP PARIBAS FORbx
DNF1148XHEDGE RUNNERS BNP PARIBAS FORbx
DNF815XIWT-TEAM2 IWTbx
DNF1306XJET'RUN bx
DNF280XLES FATTYS rx
DNF614XMONTY LEOPARDS DEUTSCHE BANK Abx
DNF523PRIMOTION BANQUE NATIONALbm
DNF958QUINTENS ASSE QUINTENS GROUPbm
DNF959QUINTENS DIEST QUINTENS GROUPbm
DNF1213XTEAM CASC 4 BNP PARIBAS FORbx
DNF1071XVBOFEB1 VBObx
DNF: abandon; DSQ: disqualifié; Vitesse en km/h
09/12/2022 - 06:41 - 1551 Entrées
ChronoRace - Electronic Timing SPRL
http://www.chronorace.be

Page 31 / 32  
Acerta Brussels Ekiden
CAP Brussels, 18/10/2014, BEL
Ekiden - Classement
42.195km 
Catégorie
PosNrNomAgeEquipeTempsTkmMoy.RangNomLocalité
DNF1074XVGC-LOOPTEAM VLAAMSE GEMEENSbx
DNF: abandon; DSQ: disqualifié; Vitesse en km/h
09/12/2022 - 06:41 - 1551 Entrées
ChronoRace - Electronic Timing SPRL
http://www.chronorace.be

Page 32 / 32